ECMWFFLT1_con_mucape_057.txt.gz
CAPE
985 1044 1256 1281 1238 1186 1264 1283 1226 1172 1094 1425 1769 1764 1984 2076 2280 2324 2297 2331 2178 2016 2032 1995 2035 1710 1555 1619 1723 1706 1749 1838 1929 2074 2071 2016 2014 2428 2339 2262 2141 2551 2218 2660 2759 2716 2566 2460 2540 2676 2751 2975 2861 3083 3274 3261 2963 2689 2954 2842 2701 3106 2774
1175 1134 1337 1398 1285 1269 1234 1204 1178 1119 1069 1346 1739 1767 2044 2200 2338 2458 2430 2459 2362 2172 2115 2076 2201 1948 1645 1675 1784 1856 1814 1854 1952 2136 2151 2153 2155 2260 2524 2430 2260 2251 2705 2395 2744 2954 2844 2758 2556 2630 2907 3092 2987 3044 3210 3082 2867 2723 2685 3278 2781 2942 2780
1054 1040 1158 1249 1299 1312 1332 1240 1144 1104 1061 1338 1707 1823 1995 2329 2438 2625 2575 2585 2564 2337 2224 2118 2178 2154 1840 1728 1802 1942 1903 1898 1972 2044 2178 2166 2195 2139 2554 2637 2407 2271 2470 2807 2668 2945 3032 2942 2712 2572 2931 3094 3101 3060 3204 2945 2799 2914 2722 3116 3025 2786 2646
949 936 1002 1060 1207 1227 1376 1400 1245 1103 1166 1521 1611 1730 1901 2318 2531 2740 2785 2748 2691 2523 2374 2226 2128 2210 2084 1861 1799 1908 1961 1936 1978 2033 2114 2148 2167 2076 2199 2850 2760 2558 2473 2766 2957 2853 3078 3011 2804 2640 3096 3064 3122 3134 3156 3132 2793 2967 2910 2900 3201 2970 2623
694 836 904 856 886 1007 1262 1467 1433 1323 1336 1566 1742 1750 1836 2328 2546 2782 2960 2980 2869 2700 2560 2440 2222 2160 2206 2080 1964 1902 1938 1936 1960 2030 2082 2153 2161 2084 1966 2339 3033 2914 2791 2750 2984 3037 2944 3054 2916 2792 2730 2890 3073 3150 3158 3218 3016 2896 3052 3037 3002 3204 2928
597 782 845 877 928 993 1194 1348 1448 1450 1426 1528 1734 1821 1924 2412 2588 2747 3057 3194 3088 2936 2748 2627 2420 2240 2174 2213 2145 2070 1980 1910 1892 1980 2096 2177 2193 2150 2002 2002 2593 3145 3112 2965 2964 3134 3049 2963 2979 2868 2965 2851 2974 3121 3217 3174 3209 2998 2991 3299 3113 3058 3159
647 733 862 944 970 1127 1189 1160 1293 1417 1400 1402 1738 2086 2146 2413 2579 2699 2971 3235 3285 3164 2966 2802 2652 2424 2286 2279 2282 2199 2080 1979 1892 1948 2086 2192 2189 2196 2082 1990 2084 2794 3192 3188 3013 2962 3167 3013 2939 2846 2933 3059 3009 3106 3261 3253 3229 3219 3081 3291 3351 3208 3133
839 701 827 943 979 1142 1346 1297 1230 1188 1286 1360 1734 2456 2386 2442 2612 2684 2853 3079 3325 3342 3195 2982 2798 2616 2514 2464 2400 2285 2172 2064 1962 1965 2097 2234 2234 2221 2180 2022 1976 2137 2702 3203 3209 2880 2794 3022 2910 2877 2707 2950 3114 3112 3288 3352 3261 3303 3296 3279 3350 3341 3292
890 684 730 874 948 1061 1277 1328 1396 1490 1469 1426 1801 2565 2590 2563 2650 2703 2823 2972 3211 3344 3332 3178 2988 2764 2671 2663 2631 2472 2276 2172 2084 2055 2146 2261 2334 2358 2312 2144 1949 1908 2148 2573 3077 3089 2743 2468 2739 2925 2813 2684 2911 3137 3303 3432 3357 3306 3419 3412 3367 3352 3286
603 809 707 736 877 934 1047 1196 1280 1501 1745 1800 2206 2775 2702 2647 2712 2728 2827 2999 3193 3318 3335 3294 3167 2952 2790 2765 2774 2676 2476 2314 2224 2185 2226 2282 2358 2427 2445 2385 2100 1871 1939 2097 2403 2984 2996 2617 2310 2803 3045 2876 2723 2829 3157 3444 3457 3368 3379 3461 3437 3356 3253
400 786 763 692 853 965 1015 1093 1163 1413 1768 2012 2381 2929 2929 2788 2754 2796 2773 2933 3271 3428 3485 3436 3337 3125 2930 2877 2857 2776 2619 2431 2306 2294 2284 2313 2349 2408 2445 2446 2372 2105 1978 2114 2180 2431 2850 2916 2512 2303 2812 3162 3009 2804 2770 3161 3482 3457 3379 3391 3406 3342 3227
423 618 780 762 879 1108 1141 1524 1939 2268 2436 2739 2895 3065 3121 3028 2920 2873 2836 2836 3216 3542 3567 3602 3545 3319 3012 2901 2880 2828 2694 2524 2396 2349 2340 2322 2310 2372 2432 2366 2360 2421 2279 2234 2328 2389 2597 2838 2852 2524 2282 2752 3255 3234 2942 2934 3312 3464 3424 3372 3363 3318 3213
534 393 682 763 840 1100 1299 1855 2526 3044 3099 3131 3174 3240 3303 3226 3108 2999 2903 2875 3051 3628 3823 3776 3691 3532 3210 2899 2802 2761 2710 2586 2487 2403 2369 2340 2247 2203 2294 2327 2245 2373 2542 2448 2392 2416 2530 2687 2818 2861 2542 2358 2669 3305 3450 3240 3247 3404 3428 3381 3368 3346 3259
907 511 352 546 659 1076 1587 1977 2456 3067 3286 3320 3297 3312 3500 3398 3272 3132 2984 2944 3074 3537 3883 3926 3794 3650 3437 3133 2810 2669 2657 2593 2496 2456 2418 2351 2252 2160 2172 2218 2185 2160 2384 2574 2478 2358 2355 2563 2670 2777 2902 2775 2570 2736 3268 3555 3446 3405 3434 3364 3334 3388 3363
734 570 463 1199 648 1071 1478 1851 2299 2997 3359 3432 3369 3390 3626 3582 3438 3280 3139 3056 3171 3427 3867 3997 3912 3756 3569 3359 3063 2723 2620 2570 2476 2411 2445 2528 2438 2370 2344 2320 2248 2169 2236 2456 2448 2339 2221 2223 2577 2667 2744 3035 3037 2862 2940 3320 3553 3498 3469 3438 3305 3280 3392
765 1958 2971 2726 872 1120 1470 1958 2288 2962 3428 3519 3463 3454 3741 3752 3621 3433 3401 3437 3354 3369 3650 3986 4012 3887 3708 3526 3298 2970 2728 2624 2502 2406 2414 2597 2671 2599 2485 2423 2349 2177 2172 2534 2602 2415 2234 2095 2217 2670 2779 2916 3236 3250 3107 3126 3415 3588 3519 3460 3374 3242 3279
1683 2278 2880 3054 2766 3303 3625 3392 3593 3593 3604 3591 3518 3489 3749 3930 3847 3736 3729 3717 3595 3444 3545 3879 4039 3982 3846 3753 3634 3320 2953 2724 2604 2478 2421 2536 2737 2742 2598 2423 2311 2207 2140 2371 2824 2831 2640 2419 2216 2386 2890 2930 3129 3464 3436 3300 3273 3442 3674 3597 3471 3352 3275
1310 2023 2454 3120 3646 4362 4558 4421 4423 4352 3982 3720 3566 3476 3614 3951 3986 3912 3870 3921 3872 3650 3467 3743 3987 4068 4005 3906 3861 3726 3452 3109 2708 2650 2542 2498 2667 2813 2710 2505 2373 2242 2176 2268 2705 3028 2955 2802 2602 2440 2683 3100 3132 3324 3570 3570 3408 3374 3550 3685 3636 3489 3378
838 1062 1744 2318 3043 3921 4353 4483 4354 4417 4323 4117 3864 3551 3456 3748 3966 3965 3893 3938 4026 3893 3744 3665 3813 4016 4061 3992 3930 3944 3766 3500 3138 2906 2763 2674 2662 2776 2809 2645 2434 2350 2318 2358 2523 2955 3187 3111 2969 2802 2583 2847 3359 3362 3475 3627 3630 3570 3523 3602 3664 3626 3465
307 1251 1302 2081 2633 2768 3382 3827 3868 3934 4047 4074 4042 3917 3620 3620 3810 3930 3860 3852 3956 3999 3886 3685 3705 3924 4033 4025 3970 4077 4000 3784 3486 3170 3109 2991 2869 2789 2840 2797 2580 2416 2464 2546 2577 2688 3024 3287 3234 3098 2952 2740 2957 3416 3503 3634 3753 3788 3700 3628 3633 3633 3570
0 1170 1358 1539 1956 2660 2806 3109 3840 4032 4070 4048 3916 3824 3855 3895 3730 3797 3841 3792 3817 3886 3957 3855 3725 3902 4047 4005 3974 4130 4170 4057 3799 3506 3426 3336 3213 3058 2975 2953 2831 2614 2561 2665 2745 2734 2719 2880 3239 3354 3316 3166 2885 2999 3446 3630 3790 3951 3953 3844 3730 3661 3632
3509 2079 2127 4074 4026 3945 3699 3808 4073 4225 3982 3873 3711 3515 3321 3339 3517 3656 3702 3886 3842 3737 3761 3835 3796 3788 4238 4082 3975 4179 4300 4233 4085 3884 3744 3648 3507 3345 3215 3190 3140 2936 2728 2700 2793 2837 2794 2738 2794 3151 3399 3439 3312 3064 3068 3611 3901 4043 4130 4116 4020 3890 3734
3422 3965 4010 4094 4511 4872 4698 4421 4404 4530 4076 3384 2930 2702 3040 3136 3127 3247 3536 3684 4005 3981 3723 3610 3604 3623 4332 4354 4143 4261 4419 4387 4294 4143 4034 3957 3857 3664 3461 3353 3373 3338 3123 2892 2767 2826 2903 2872 2801 2837 3134 3432 3507 3404 3208 3179 3734 4197 4283 4280 4226 4138 3974
3028 2920 2699 2562 2667 3387 4102 3736 3379 3642 3471 3159 3198 3190 4242 4852 4371 3082 3212 3589 3660 4106 4046 3796 3709 3606 3918 4582 4406 4426 4599 4572 4491 4390 4309 4260 4161 4033 3816 3605 3531 3581 3574 3356 3081 2910 2914 2991 3015 3008 3068 3296 3571 3624 3560 3394 3343 3708 4260 4505 4524 4440 4343
2636 2458 2865 3389 3327 4324 4758 4929 5180 4842 4341 3739 3898 4834 5065 3908 5139 4835 4202 3266 3492 3706 4105 4032 3799 3703 3701 4480 4642 4539 4735 4818 4772 4717 4657 4578 4473 4358 4229 4045 3869 3808 3919 3812 3598 3326 3173 3205 3270 3318 3355 3393 3510 3768 3836 3801 3751 3661 3663 3940 4368 4578 4593
2221 2233 2024 3371 3418 3801 4620 4308 4115 4206 4113 4575 5475 5212 5198 5569 5051 4702 4979 4997 3714 3459 3576 3837 3906 3792 3719 4220 4810 4664 4715 4949 5007 5054 5037 4973 4888 4746 4584 4433 4284 4250 4267 4240 4034 3797 3525 3418 3465 3579 3654 3680 3700 3711 3885 4011 4068 4047 3997 3883 3760 3871 4343
2684 2704 2977 3454 3622 3823 3874 3674 3793 4220 3891 4294 4723 4630 4952 5148 4994 4638 4420 4651 4992 3889 3387 3404 3701 3954 3956 4068 4851 4786 4744 4961 5178 5303 5297 5259 5209 5133 4971 4770 4614 4530 4583 4581 4453 4228 3986 3706 3614 3656 3780 3842 3868 3844 3824 3904 4012 4115 4137 4127 4060 3958 3812
2759 2820 2969 3046 3398 3047 3646 3931 3672 4076 3901 4131 4944 4939 4590 3914 4343 4892 4619 4630 4900 4891 4008 3638 4030 4212 4175 4197 4781 4880 4820 4967 5308 5508 5510 5449 5393 5373 5276 5128 4884 4724 4691 4692 4673 4555 4364 4120 3868 3827 3956 4180 4259 4190 4120 4104 4069 4139 4153 4231 4265 4213 4136
2126 2001 2251 2647 2655 2418 3097 4046 3694 3791 3630 3691 4723 4876 4566 4785 4015 4236 4571 4338 4514 5353 4800 4154 4329 4404 4383 4337 4686 4904 4862 4955 5360 5635 5679 5601 5511 5435 5370 5323 5175 4973 4827 4803 4775 4694 4562 4416 4200 3997 3937 4021 4265 4456 4501 4435 4409 4323 4245 4191 4153 4173 4292
2045 2070 2590 2731 2647 2702 2935 3128 3138 3407 3489 3377 3716 4402 4340 4402 5148 4902 5146 5189 5522 5708 5749 5076 4746 4594 4549 4404 4540 4929 4933 5054 5421 5635 5648 5683 5638 5532 5431 5362 5251 5121 4952 4914 4871 4795 4738 4623 4504 4300 4100 4070 4231 4494 4572 4646 4690 4683 4473 4374 4291 4357 4406
1938 1903 2045 2768 2687 2752 2716 2758 2984 3346 3391 3192 3360 4377 4424 4274 4881 5276 5038 4879 5226 5334 5318 5960 5452 4957 4786 4652 4687 5011 5184 5164 5363 5548 5512 5540 5677 5654 5576 5463 5286 5144 5043 5028 4951 4906 4876 4873 4842 4716 4472 4340 4395 4626 4796 4748 5704 4858 4665 4544 4359 4269 4231
1752 2088 2252 2591 2522 2423 2543 2694 2862 3109 3093 3087 3290 4026 4329 4290 4448 4765 4907 4838 4822 4928 5124 5768 5932 5145 5019 4936 4922 4971 5320 5410 5359 5422 5338 5331 5512 5649 5694 5609 5404 5226 5255 5141 5017 5001 5047 5139 5126 5008 4833 4585 4650 4655 4686 4642 4194 4065 3988 3852 3862 3820 3783
1887 1904 2175 2252 2604 2931 2606 2608 2911 2978 2781 2656 3100 3541 4192 4172 4219 4402 4590 4786 4676 4546 4853 5437 5577 5701 5310 5216 5226 5131 5276 5485 5517 5450 5275 5464 5578 5624 5681 5614 5492 5322 5378 5346 5205 5118 5148 5287 5246 5138 5022 4959 4716 4648 4336 4354 4141 4048 3879 3788 3843 3884 3860
1820 1829 2020 2104 2533 2512 2513 2406 2727 2701 2353 2180 2228 2960 3583 3851 3988 4086 4196 4481 4852 5165 4871 5081 5530 5515 5550 5321 5238 5113 5026 5246 6252 5681 5358 5463 5551 5689 5575 5453 5403 5251 5394 5439 5304 5202 5116 5010 5008 4995 5010 4901 4747 4591 4400 4105 3964 3928 3946 3880 3850 3840 3844
1501 1649 1860 2264 2158 2339 2364 2453 2551 2325 2180 2186 2292 2156 2574 3160 3557 3797 3798 4352 4890 5410 5413 5576 5505 5254 5459 5308 5064 4918 5190 4912 5394 5142 5069 5066 5082 5257 5344 5348 5416 5142 5104 5058 5098 4981 4888 4720 4552 4485 4379 4266 4361 4408 4300 4185 4063 3942 3840 3824 3795 3758 3695
1347 1596 1858 2191 2285 2186 2203 2676 2614 2373 2225 2236 2128 2186 2316 2589 3018 3126 3627 4310 4677 4930 4975 5030 5033 5120 5271 5364 5319 5250 5169 5113 4651 4839 4728 4754 4702 4783 5008 4964 5034 5061 4959 4921 4822 4700 4561 4437 4375 4269 4143 3923 3880 3975 4147 4055 3982 3905 3804 3757 3691 3640 3582
1350 1604 1875 2285 2176 2183 2186 2023 2015 2317 2106 1915 2027 1822 1927 2060 2364 2953 3397 4039 4554 4731 4796 4817 4831 4804 4808 4831 4760 4644 4509 4410 4339 4326 4500 4508 4459 4350 4484 4588 4473 4494 4508 4485 4343 4202 4157 4226 4091 3913 3908 3888 3919 3854 3865 3903 3879 3859 3757 3663 3590 3507 3384
1188 1561 2083 2302 2242 2035 1998 1959 2254 2340 2040 1807 1726 1727 2153 2193 2042 2331 2877 3530 4071 4359 4576 4756 4808 4760 4629 4546 4492 4429 4320 4199 4152 4112 4168 4223 4174 4069 3941 4152 4124 3926 3953 4099 4098 4104 4102 4120 4066 3996 4036 4008 3947 3926 3868 3750 3693 3617 3518 3339 3156 3022 2882

ECMWFFLT1_con_mucape_060.txt.gz
CAPE
589 661 776 855 914 955 989 948 832 672 611 615 825 913 869 888 856 847 1079 1007 1118 1228 1204 1228 1259 1302 1349 1349 1305 1212 1089 918 811 943 922 1090 1499 1130 951 1277 1373 1176 1469 1751 1908 2014 2086 2108 2247 2350 2373 2585 2751 2823 3074 3180 3194 3138 3014 2962 2956 2947 2741
662 710 845 882 877 902 952 958 794 740 730 676 879 1048 995 1016 1007 946 1057 1098 1071 1193 1268 1278 1261 1233 1245 1237 1195 1127 1030 977 864 1003 1036 946 1270 1594 1186 1202 1567 1474 1450 1760 1925 2013 2090 2138 2202 2282 2282 2440 2672 2791 2946 3084 3131 3107 3063 2927 2782 2784 2658
658 722 854 930 926 897 926 941 860 842 939 808 957 1132 1140 1147 1208 1124 1149 1228 1148 1135 1268 1321 1346 1271 1217 1194 1142 1094 1023 1012 958 980 1125 1121 1081 1460 1619 1320 1441 1740 1638 1768 1991 2066 2117 2138 2134 2239 2246 2337 2521 2699 2882 2980 3069 3100 3116 3065 2764 2700 2621
697 717 816 960 963 937 920 918 918 904 1047 1064 1059 1212 1264 1294 1368 1338 1318 1369 1334 1238 1278 1338 1404 1344 1248 1174 1116 1060 1023 1052 1072 1056 1158 1229 1198 1223 1678 1687 1454 1526 1912 1843 2073 2162 2212 2143 2097 2152 2554 2293 2444 2532 2754 2896 2941 2991 3030 3053 2818 2722 2645
788 740 790 920 968 947 932 955 940 923 1025 1206 1193 1280 1395 1431 1524 1574 1533 1543 1500 1424 1366 1405 1435 1444 1330 1229 1160 1110 1086 1110 1170 1208 1257 1331 1353 1327 1515 1821 1752 1553 1683 2027 2071 2317 2375 2294 2184 2119 2301 2379 2436 2505 2605 2786 2853 2899 2949 2961 2818 2646 2600
843 846 798 904 964 938 1002 1037 1032 990 1000 1199 1341 1365 1479 1584 1696 1774 1759 1803 1715 1633 1543 1508 1498 1565 1470 1329 1236 1198 1217 1190 1214 1296 1374 1458 1494 1499 1500 1788 1963 1832 1634 1826 2194 2310 2511 2457 2352 2240 2211 2454 2525 2581 2595 2698 2758 2799 2867 2890 2796 2581 2623
850 890 872 930 983 995 1068 1127 1123 1079 1044 1125 1349 1472 1582 1764 1846 1928 1935 1956 1923 1857 1743 1669 1627 1613 1622 1515 1376 1308 1319 1350 1325 1342 1406 1497 1580 1610 1587 1676 2035 2072 1875 1723 2039 2318 2518 2625 2526 2438 2320 2382 2579 2660 2694 2705 2761 2730 2752 2782 2735 2540 2624
831 891 878 958 1050 1068 1096 1169 1210 1175 1134 1118 1235 1476 1613 1820 1954 2046 2075 2078 2083 2032 1938 1849 1767 1712 1715 1687 1565 1444 1408 1448 1470 1442 1428 1463 1547 1650 1670 1662 1862 2220 2154 1928 1883 2232 2401 2534 2677 2623 2525 2452 2495 2643 2734 2766 2787 2783 2702 2677 2615 2465 2462
828 910 908 976 1101 1136 1123 1168 1221 1251 1226 1197 1187 1378 1594 1788 2012 2141 2216 2222 2232 2194 2136 2018 1940 1840 1792 1796 1743 1623 1523 1501 1550 1545 1514 1494 1518 1596 1652 1672 1679 1985 2374 2282 2073 2130 2359 2429 2476 2614 2642 2580 2530 2556 2661 2762 2792 2822 2776 2664 2592 2525 2450
849 926 930 945 1088 1150 1158 1182 1179 1204 1242 1230 1214 1317 1534 1703 1961 2172 2306 2368 2381 2351 2303 2195 2108 2001 1893 1837 1834 1797 1700 1611 1582 1602 1593 1576 1572 1594 1637 1649 1622 1639 2066 2503 2449 2295 2332 2460 2487 2484 2547 2598 2602 2583 2599 2682 2775 2806 2819 2760 2648 2617 2583
804 879 928 906 970 1060 1126 1187 1238 1206 1183 1168 1212 1344 1473 1615 1831 2097 2311 2485 2574 2546 2473 2386 2285 2175 2067 1963 1861 1866 1843 1765 1672 1629 1615 1614 1619 1644 1661 1677 1653 1586 1622 2031 2537 2602 2469 2462 2555 2556 2520 2510 2540 2622 2636 2645 2722 2790 2806 2819 2752 2685 2671
757 835 894 878 897 945 1081 1177 1321 1347 1267 1203 1282 1445 1523 1570 1743 2022 2263 2488 2685 2758 2700 2591 2472 2376 2272 2171 2049 1913 1898 1893 1816 1719 1645 1612 1618 1652 1697 1722 1711 1653 1607 1624 1996 2540 2680 2565 2509 2597 2631 2577 2526 2535 2649 2702 2738 2798 2820 2841 2868 2816 2749
698 767 842 878 874 898 1008 1073 1218 1385 1381 1314 1336 1525 1685 1704 1778 1998 2204 2391 2637 2819 2863 2807 2691 2583 2478 2376 2247 2102 1974 1954 1926 1840 1750 1678 1640 1634 1687 1742 1765 1731 1663 1615 1644 1926 2475 2713 2598 2490 2601 2728 2709 2627 2583 2670 2774 2848 2883 2890 2925 2963 2927
866 700 757 849 835 859 970 1070 1128 1264 1370 1392 1404 1536 1862 1911 1930 2073 2218 2363 2546 2758 2922 2958 2892 2779 2665 2562 2452 2328 2162 2068 2007 1941 1861 1790 1724 1676 1682 1746 1794 1804 1749 1646 1604 1622 1831 2347 2671 2628 2455 2511 2692 2754 2664 2574 2615 2792 2932 2964 2962 2994 3041
702 678 745 817 845 862 981 1121 1178 1209 1292 1381 1405 1515 1939 2146 2147 2183 2287 2361 2511 2692 2864 3000 3033 2979 2873 2747 2646 2541 2403 2246 2180 2074 1979 1899 1831 1765 1712 1734 1808 1857 1862 1791 1664 1600 1633 1759 2204 2597 2640 2460 2339 2503 2662 2615 2527 2555 2779 2990 3028 3005 3030
718 694 727 795 850 865 925 1077 1184 1231 1303 1360 1390 1577 2119 2324 2352 2370 2430 2456 2565 2739 2913 3027 3077 3090 3039 2946 2835 2726 2613 2466 2351 2269 2151 2042 1964 1882 1805 1765 1796 1864 1909 1924 1864 1721 1650 1667 1792 2121 2456 2561 2456 2324 2404 2667 2754 2648 2586 2740 2963 3038 3036
712 760 746 758 778 755 789 926 1104 1242 1340 1507 1620 1770 2360 2604 2554 2519 2566 2605 2637 2788 3019 3131 3172 3152 3119 3049 2969 2879 2770 2642 2510 2414 2319 2213 2095 2011 1926 1834 1806 1842 1887 1926 1985 1947 1807 1762 1809 1954 2146 2358 2473 2409 2287 2274 2573 2888 2877 2728 2748 2883 3007
664 770 786 772 728 663 772 1021 1309 1418 1502 1696 1891 2053 2479 2847 2875 2774 2738 2748 2755 2793 3067 3294 3316 3308 3279 3222 3113 3001 2896 2797 2695 2577 2465 2343 2239 2111 2021 1933 1834 1803 1847 1871 1913 2029 2034 1955 1899 1958 2095 2227 2360 2462 2464 2374 2288 2426 2864 3033 2951 2870 2910
589 606 696 742 691 597 857 1173 1617 1972 2062 2089 2238 2412 2680 2979 3067 3029 2958 2924 2903 2888 3030 3367 3500 3493 3448 3398 3328 3240 3124 3036 2943 2854 2738 2580 2379 2246 2110 2016 1904 1810 1787 1841 1876 1951 2095 2129 2060 1990 2010 2158 2319 2425 2545 2602 2568 2450 2449 2783 3099 3166 3092
1135 811 807 608 665 768 961 1254 1596 2200 2686 2774 2785 2805 2966 3222 3276 3232 3150 3118 3105 3106 3070 3268 3540 3647 3642 3593 3524 3446 3377 3297 3241 3211 3152 3034 2828 2552 2263 2130 2016 1902 1821 1806 1824 1864 1974 2109 2142 2103 2023 2012 2144 2323 2415 2536 2676 2749 2687 2617 2773 3070 3254
2156 2063 2166 2387 2494 2306 2333 2618 2811 2852 3034 3206 3232 3200 3258 3470 3518 3479 3384 3341 3314 3260 3208 3131 3425 3666 3766 3755 3709 3656 3621 3578 3536 3507 3476 3403 3254 3014 2682 2253 2193 2081 1976 1909 1882 1868 1946 2104 2175 2155 2105 2037 2001 2078 2265 2394 2496 2715 2851 2865 2824 2862 3053
2934 3187 3340 3227 3231 3452 3568 3649 3679 3561 3502 3457 3471 3448 3453 3612 3701 3674 3610 3514 3464 3424 3353 3296 3275 3558 3799 3891 3887 3856 3812 3778 3745 3711 3673 3616 3518 3379 3161 2850 2434 2280 2187 2088 2023 1981 1953 2055 2236 2342 2318 2220 2077 2014 2128 2370 2503 2632 2816 2964 3014 3000 2995
3040 3383 3661 3726 3632 3671 3699 3769 3876 3866 3839 3753 3666 3573 3534 3657 3811 3851 3803 3715 3654 3605 3552 3498 3458 3408 3676 3884 3967 3980 3959 3923 3886 3849 3806 3770 3697 3586 3414 3231 3006 2664 2318 2275 2186 2120 2086 2082 2188 2410 2552 2560 2486 2352 2254 2322 2548 2771 2871 2991 3118 3173 3165
3867 3866 3586 3297 3102 3481 3633 3670 3758 3824 3995 4077 4282 4361 4167 3628 3796 3942 3962 3914 3856 3831 3829 3786 3741 3649 3605 3789 3966 4044 4048 4043 4005 3983 3940 3875 3818 3708 3607 3467 3279 3057 2795 2499 2347 2272 2206 2167 2164 2250 2458 2672 2761 2728 2634 2532 2492 2652 2986 3161 3231 3272 3274
3476 3470 3385 3294 3316 3475 3502 3552 3669 3870 4070 4137 4151 4220 4754 4520 3654 3668 3898 3996 4008 3976 3984 4016 3993 3946 3886 3825 3814 4008 4096 4140 4128 4077 4032 3973 3908 3818 3741 3612 3460 3275 3094 2910 2707 2512 2323 2292 2306 2325 2352 2453 2661 2892 2958 2920 2861 2786 2765 3122 3351 3445 3463
2705 3043 3282 3383 3466 3560 3568 3448 3426 3574 3886 4166 4253 4171 4155 4452 4470 4485 3541 3608 3894 3996 4016 4028 4033 4038 4018 3990 3972 3942 4056 4107 4141 4127 4075 4038 3973 3907 3825 3720 3587 3464 3283 3142 2975 2827 2665 2455 2387 2415 2460 2477 2509 2564 2782 3007 3120 3166 3156 3086 3311 3498 3579
2487 2594 3092 3256 3358 3508 3403 3346 3439 3636 3828 4186 4381 4108 4095 4041 3971 4390 4396 4323 4041 3653 3720 3872 3880 3906 3964 3994 4017 4038 4059 4080 4136 4163 4124 4091 4036 3962 3891 3809 3703 3586 3459 3337 3195 3074 2946 2810 2653 2521 2530 2590 2665 2691 2698 2838 3058 3241 3313 3336 3304 3475 3675
2348 2314 2419 2769 3046 2965 2996 3126 3060 3176 3444 3997 4341 4320 4090 4268 4286 3731 4000 4073 4051 3924 3926 3807 3577 3665 3756 3756 3954 4149 4150 4143 4171 4189 4181 4142 4108 4057 3976 3887 3794 3709 3612 3500 3387 3298 3186 3066 2928 2767 2662 2741 2851 2939 2974 3067 3230 3344 3462 3513 3521 3486 3542
2197 2161 2190 2213 2412 2688 3012 3194 3178 3044 3046 3162 4009 4480 4090 4197 4481 4521 4066 3922 4238 4499 4730 4607 4062 3714 3594 3692 3879 4205 4274 4297 4323 4317 4280 4253 4199 4158 4107 4031 3944 3866 3762 3669 3577 3492 3404 3395 3298 3193 3022 2990 3180 3306 3375 3419 3492 3574 3644 3735 3809 3858 3875
1992 2131 2076 2061 2316 2408 2628 3041 3118 3185 3076 3112 3401 3897 4220 4107 4260 4333 4473 4315 4406 4470 4844 5104 4530 4032 3708 3638 3787 4206 4346 4418 4529 4565 4590 4532 4445 4354 4305 4290 4236 4093 4012 3899 3808 3746 3816 3754 3704 3560 3475 3417 3296 3580 3770 3820 3819 3824 3811 3792 3840 3897 3936
1562 1780 2100 2140 2218 2464 2352 2702 2733 2785 2969 2953 3260 3680 4031 4079 4292 4285 4219 4310 4423 4445 4684 5049 4634 4177 3910 3736 3836 4201 4400 4487 4658 4814 4909 4892 4792 4703 4623 4599 4545 4468 4378 4279 4141 4167 4125 4096 3956 3918 3879 3794 3704 3669 3941 4146 4210 4187 4148 4132 4111 4092 4070
1438 1752 1931 2126 2109 2155 2229 2416 2445 2433 2479 2780 2808 3233 3754 3997 3980 4160 4204 4355 4562 4406 4635 5298 4668 4258 3986 3865 3930 4227 4457 4557 4787 5020 5160 5170 5077 4991 4914 4871 4837 4777 4716 4619 4554 4476 4430 4395 4352 4298 4331 4317 4264 4222 4151 4076 4224 4351 4380 4396 4428 4438 4430
1256 1565 1803 1855 2039 2326 2117 2186 2272 2267 2207 2128 2186 2635 3243 3764 3960 3969 4064 4352 4622 4591 4794 5453 5006 4488 4124 4057 4089 4349 4580 4667 4931 5190 5321 5376 5304 5234 5158 5083 5064 5042 5001 4946 4899 4851 4802 4715 4648 4589 4599 4576 4515 4442 4360 4276 4300 4367 4423 4439 4453 4440 4413
1154 1522 1725 1800 1944 2015 1953 2148 2163 2126 2135 2072 1919 1901 2105 3061 3732 3899 3992 4222 4596 4751 4720 4975 5319 4937 4537 4375 4285 4559 4776 4777 5685 5455 5372 5505 5501 5449 5372 5282 5259 5230 5188 5176 5130 5077 5021 4942 4868 4786 4704 4672 4634 4589 4527 4449 4345 4286 4278 4208 4139 4101 3984
952 1355 1570 1744 1832 1941 1916 2099 2171 2034 1993 1872 1763 1911 1960 1968 2624 3572 3713 3890 4245 4782 4846 4850 5127 5253 4939 4720 4572 4650 4960 4935 5490 5307 5323 5460 5517 5547 5530 5530 5470 5366 5326 5261 5233 5172 5100 5030 4960 4909 4864 4825 4786 4724 4669 4628 4548 4411 4266 4184 4164 4111 3988
546 789 1195 1517 1726 1871 1954 2062 2112 2002 1916 1909 1803 1795 1868 1912 1928 2463 3331 3534 4265 4774 4810 4801 4907 5133 5071 4979 4866 4781 5038 5167 5291 5210 5237 5289 5333 5389 5402 5459 5566 5570 5489 5461 5316 5271 5177 5049 5029 5030 5000 4964 4912 4884 4908 4800 4593 4416 4322 4267 4130 3900 3726
384 673 874 1270 1461 1700 1879 1928 1982 2083 2004 1782 1623 1590 1783 1742 1698 1906 2602 3164 4095 4590 4760 4652 4699 4847 5002 4902 4943 4939 4949 5140 5250 5214 5151 5113 5101 5071 5113 5160 5306 5476 5456 5394 5370 5320 5240 5126 5082 4999 5031 5100 5072 4844 4433 4191 4248 4366 4330 4148 3902 3743 3765
307 321 793 1081 1314 1556 1828 1948 2028 2036 1995 1792 1703 1635 1607 1632 1758 2047 2223 2796 3670 4342 4701 4584 4560 4664 4856 4797 4727 4768 4794 5033 5172 5202 5212 5172 5102 5061 5047 5014 5049 5036 5193 5175 5108 5026 5065 5083 5018 4875 4694 4598 4563 4536 4373 4092 4012 4012 3887 3881 3851 3787 3687

ECMWFFLT1_con_mucape_063.txt.gz
CAPE
186 320 429 526 548 544 528 511 502 493 413 545 591 612 648 780 860 895 934 961 960 974 1063 1204 1283 1339 1371 1346 1291 1255 1211 1182 1166 1161 1141 1104 1056 1004 927 865 845 859 1133 1464 1712 1848 1897 1945 2058 2105 2086 2094 2167 2317 2492 2677 2772 2841 2891 2914 2985 3018 2918
209 360 444 537 609 613 584 553 557 564 534 432 344 572 605 733 832 870 928 954 976 991 1034 1168 1270 1328 1373 1359 1321 1300 1263 1226 1186 1158 1131 1100 1044 988 916 880 843 806 901 1250 1494 1718 1817 1850 1963 2070 2104 2100 2173 2256 2400 2590 2713 2786 2847 2900 2966 3014 2987
203 346 466 556 646 685 674 646 633 626 597 479 361 565 605 680 794 855 901 958 995 1012 1034 1130 1249 1317 1355 1369 1334 1302 1281 1236 1185 1132 1108 1067 1020 1003 964 928 886 853 810 1050 1333 1550 1715 1784 1828 1980 2060 2098 2162 2264 2338 2462 2627 2725 2779 2851 2910 2973 2954
145 268 459 566 661 740 755 740 722 679 652 585 566 410 563 654 705 815 875 927 984 1026 1054 1102 1206 1286 1339 1355 1344 1308 1276 1262 1206 1159 1121 1072 1016 1000 1040 974 960 932 902 932 1210 1429 1654 1756 1812 1881 2184 2049 2114 2237 2347 2400 2498 2611 2683 2713 2754 2818 2860
157 226 398 554 674 750 789 826 806 765 709 644 613 614 642 661 691 769 831 894 942 1003 1034 1084 1169 1263 1308 1347 1349 1324 1292 1265 1250 1199 1147 1095 1009 891 1126 1095 996 963 1069 1024 1148 1432 1610 1748 1800 1847 1945 2016 2060 2173 2307 2400 2443 2513 2580 2589 2606 2640 2745
163 324 410 518 644 746 830 868 879 845 781 704 660 660 677 686 699 708 794 865 904 941 1002 1042 1116 1202 1263 1301 1322 1311 1294 1286 1275 1254 1195 1111 1005 892 996 1256 1156 979 1089 1238 1242 1444 1609 1743 1774 1819 1884 1990 2048 2108 2209 2321 2419 2482 2526 2558 2546 2557 2614
206 328 420 495 598 718 824 873 888 876 825 744 680 685 722 742 738 726 720 851 906 918 978 1030 1060 1116 1178 1213 1251 1259 1262 1265 1262 1261 1212 1136 1015 913 900 1076 1343 1290 1148 1276 1450 1523 1682 1774 1819 1841 1855 1953 2028 2058 2107 2174 2304 2428 2496 2531 2530 2522 2538
212 339 411 495 584 677 759 828 891 893 854 792 750 722 739 764 768 775 759 827 924 932 968 1025 1059 1093 1137 1149 1171 1206 1199 1214 1230 1237 1215 1141 1044 952 985 976 1161 1440 1440 1327 1479 1698 1784 1847 1888 1890 1879 1891 1984 2030 2058 2108 2176 2302 2427 2475 2500 2495 2483
286 367 437 502 600 674 717 792 869 927 928 915 876 815 800 918 934 938 898 854 948 982 983 1025 1087 1109 1137 1139 1143 1156 1158 1151 1150 1156 1158 1121 1063 1004 1076 1090 1105 1285 1541 1569 1478 1641 1875 1958 2007 2004 1961 1902 1914 2010 2076 2123 2153 2215 2310 2380 2420 2447 2445
198 385 460 527 605 691 749 796 834 885 933 978 991 936 871 1025 1045 1065 1064 1027 1046 1068 1048 1038 1098 1165 1200 1205 1183 1162 1158 1157 1140 1135 1140 1129 1111 1129 1166 1194 1217 1294 1499 1647 1640 1590 1730 1975 2099 2150 2118 2044 1965 1974 2076 2160 2212 2243 2292 2345 2370 2390 2419
279 414 476 538 606 710 762 790 845 900 936 1002 1010 965 1025 1105 1154 1200 1235 1229 1229 1225 1200 1158 1148 1199 1251 1280 1261 1245 1236 1219 1201 1183 1157 1150 1160 1192 1237 1292 1315 1341 1483 1657 1761 1727 1665 1771 2012 2182 2255 2232 2143 2070 2060 2146 2252 2314 2350 2381 2403 2406 2408
216 430 504 534 611 702 775 827 907 947 973 985 988 1027 1142 1202 1272 1326 1393 1426 1431 1447 1420 1373 1334 1305 1324 1354 1357 1344 1306 1293 1272 1246 1226 1200 1200 1217 1253 1318 1374 1395 1459 1600 1796 1882 1819 1756 1839 2012 2168 2268 2291 2232 2172 2163 2228 2327 2388 2436 2465 2473 2457
212 459 522 546 610 726 821 868 934 1001 1020 1018 1006 1014 1189 1304 1378 1472 1550 1610 1652 1681 1657 1623 1562 1505 1460 1456 1457 1450 1414 1381 1358 1332 1314 1295 1282 1260 1255 1286 1349 1400 1432 1502 1676 1875 1970 1933 1866 1924 2011 2089 2191 2263 2283 2264 2254 2280 2360 2432 2480 2515 2528
644 446 518 555 618 756 872 927 978 1020 1060 1054 1027 1016 1134 1333 1453 1575 1692 1786 1847 1884 1896 1867 1793 1722 1662 1608 1583 1581 1556 1515 1465 1470 1472 1444 1368 1357 1332 1313 1322 1365 1399 1420 1491 1643 1920 2076 2056 2008 2012 2056 2066 2110 2160 2222 2262 2298 2319 2370 2442 2498 2529
402 447 520 567 661 786 916 979 1004 1053 1102 1111 1082 1053 1102 1272 1449 1592 1768 1912 2023 2081 2102 2092 2025 1952 1879 1811 1766 1721 1693 1664 1632 1630 1632 1625 1569 1463 1429 1398 1381 1379 1399 1415 1424 1437 1555 1853 2115 2165 2142 2112 2112 2123 2133 2136 2154 2220 2311 2378 2428 2463 2507
440 468 524 614 712 818 936 1003 1043 1086 1152 1184 1160 1138 1144 1225 1385 1556 1733 1938 2110 2216 2257 2265 2232 2170 2106 2038 1963 1902 1854 1821 1809 1799 1790 1784 1775 1679 1504 1474 1468 1464 1467 1464 1460 1440 1426 1447 1684 2023 2187 2203 2186 2188 2212 2232 2206 2190 2242 2336 2419 2484 2518
444 483 555 645 728 829 941 1015 1071 1116 1168 1217 1232 1238 1237 1262 1356 1479 1633 1838 2089 2294 2422 2450 2439 2365 2316 2248 2185 2122 2071 2032 2008 1990 1976 1956 1913 1879 1737 1551 1521 1511 1522 1522 1534 1519 1480 1438 1427 1548 1867 2140 2212 2201 2179 2230 2311 2359 2347 2348 2410 2474 2556
435 497 568 649 741 818 919 1016 1051 1115 1204 1245 1279 1298 1313 1332 1390 1466 1579 1746 1987 2251 2494 2622 2626 2574 2508 2458 2411 2361 2311 2256 2224 2192 2178 2138 2102 2074 1994 1829 1624 1551 1529 1541 1558 1567 1553 1520 1477 1442 1486 1693 2004 2189 2213 2169 2185 2317 2444 2482 2488 2500 2526
438 508 572 648 732 807 901 999 1053 1111 1220 1298 1323 1316 1321 1390 1507 1566 1608 1714 1916 2155 2445 2680 2784 2771 2732 2675 2631 2582 2529 2490 2445 2421 2370 2332 2302 2311 2266 2153 1980 1760 1597 1561 1566 1605 1633 1611 1573 1542 1495 1478 1563 1786 2062 2200 2205 2206 2244 2385 2506 2557 2552
420 510 555 638 732 815 904 974 1020 1064 1179 1336 1419 1421 1384 1495 1662 1703 1707 1780 1938 2155 2382 2634 2806 2894 2899 2874 2829 2778 2730 2685 2650 2597 2543 2507 2522 2548 2518 2427 2301 2124 1912 1671 1621 1645 1682 1712 1716 1674 1629 1574 1529 1543 1645 1857 2053 2188 2234 2248 2285 2396 2497
445 547 593 628 708 809 898 956 990 1036 1137 1270 1419 1474 1448 1506 1834 1912 1944 2025 2131 2243 2420 2611 2783 2897 2975 2996 2976 2947 2898 2854 2806 2758 2729 2728 2749 2739 2688 2609 2518 2410 2304 2147 1940 1703 1727 1750 1796 1810 1791 1737 1678 1622 1611 1661 1767 1941 2106 2204 2242 2247 2299
1803 1195 938 659 661 758 849 923 968 1034 1159 1227 1315 1414 1470 1710 2056 2205 2246 2260 2314 2362 2479 2664 2815 2915 2993 3049 3078 3063 3036 2994 2958 2942 2939 2944 2925 2888 2841 2760 2839 2838 2820 2689 2532 2340 2095 1823 1784 1822 1859 1882 1878 1819 1756 1734 1760 1862 1978 2104 2214 2257 2255
2938 2748 2556 2358 2200 2179 1980 1776 1702 1998 2412 2006 1848 1847 1807 2206 2499 2542 2525 2520 2521 2550 2570 2725 2909 3027 3107 3147 3169 3172 3161 3139 3128 3116 3102 3085 3047 3013 2970 3016 3151 3232 3250 3202 3063 2826 2599 2314 2046 1853 1834 1890 1941 1942 1900 1863 1850 1861 1948 2072 2199 2302 2365
3030 3059 3060 3025 3031 3067 3081 3141 3237 3297 2860 2876 2735 2560 2624 2800 2865 2908 2892 2831 2768 2744 2739 2782 2951 3121 3250 3334 3321 3337 3308 3278 3245 3225 3213 3185 3171 3120 3149 3250 3353 3448 3478 3459 3319 3156 2958 2725 2463 2153 1884 1846 1894 1938 1978 1966 1953 1944 1938 1954 2073 2206 2317
3170 3225 3283 3326 3430 3492 3531 3587 3638 3674 3730 3768 3754 3610 3070 3077 3150 3119 3136 3113 3057 2999 2960 2926 2799 2938 3306 3465 3510 3525 3506 3467 3436 3394 3370 3352 3258 3286 3360 3441 3524 3579 3614 3617 3553 3448 3298 3102 2877 2608 2287 1970 1834 1881 1944 1965 1976 1986 1994 1993 2000 2064 2181
3039 3123 3265 3420 3484 3575 3675 3693 3718 3753 3794 3868 3974 3855 3418 3409 3458 3451 3390 3383 3325 3282 3244 3184 3234 3256 3314 3344 3634 3714 3692 3663 3624 3589 3534 3516 3432 3460 3541 3603 3664 3702 3726 3717 3675 3642 3550 3399 3230 3045 2838 2615 2368 2065 1958 2042 2104 2135 2155 2162 2142 2127 2136
2968 2953 2987 3093 3252 3439 3584 3610 3650 3674 3694 3746 3799 3884 3880 3663 3723 3739 3720 3686 3624 3584 3580 3538 3551 3592 3609 3601 3585 3733 3830 3832 3810 3769 3724 3686 3675 3675 3706 3743 3778 3805 3816 3799 3770 3732 3688 3628 3500 3325 3153 2974 2814 2633 2488 2250 2196 2374 2434 2472 2471 2447 2436
2931 2964 3005 2938 3064 3255 3489 3580 3638 3707 3764 3712 3692 3894 3792 3714 3740 3923 3833 3873 3918 3928 3889 3894 3892 3858 3846 3819 3782 3760 3754 3936 3958 3929 3904 3875 3854 3862 3864 3864 3880 3892 3889 3866 3840 3805 3750 3718 3618 3512 3388 3228 3089 2988 2885 2752 2577 2386 2569 2661 2704 2715 2737
2512 2686 2731 2794 2699 2575 2522 2691 2827 3008 3375 3624 3608 3608 3663 3710 3800 3778 3703 3680 3792 3864 3975 4082 3997 3878 3959 3984 3981 3986 3978 3955 3940 3965 4031 4031 4007 3993 4001 3992 3998 3980 3960 3948 3924 3888 3851 3781 3718 3635 3550 3442 3328 3216 3135 3053 2956 2806 2703 2671 2630 2871 2914
1716 2038 2368 2557 2614 2598 2487 2429 2518 2700 2979 3229 3426 3581 3604 3577 3563 3674 3677 3638 3876 4038 4072 4318 4512 4310 3734 3709 3773 3890 4003 4040 4062 4049 4037 4076 4105 4098 4102 4101 4086 4064 4044 4016 3987 3965 3924 3864 3781 3715 3654 3593 3517 3442 3359 3297 3230 3152 3107 3029 2929 2792 2884
1651 1800 1992 2161 2306 2387 2376 2332 2236 2154 2275 2648 2998 3371 3615 3609 3632 3659 3654 3787 3926 4123 4151 4463 4798 4665 4317 3812 3648 3639 3727 3826 3914 3963 4031 4106 4140 4171 4176 4180 4156 4142 4122 4077 4049 4023 3980 3928 3856 3802 3742 3675 3638 3600 3551 3495 3468 3476 3444 3401 3302 3168 3032
1586 1636 1731 1897 1996 2018 2050 2088 2045 1968 1876 1891 2219 2656 3044 3427 3532 3647 3658 3793 4076 4187 4336 4507 4968 4688 4605 4305 3875 3638 3592 3804 3918 3988 4034 4096 4151 4202 4213 4217 4193 4191 4188 4145 4106 4053 4014 3983 3926 3870 3836 3809 3793 3765 3752 3762 3782 3792 3772 3701 3600 3505 3479
1542 1598 1688 1783 1870 1987 1907 1880 1819 1717 1620 1572 1727 1826 1997 2675 3070 3433 3628 3740 4010 4259 4375 4564 5006 4958 4611 4408 4350 4063 3777 3903 4019 4118 4168 4196 4236 4257 4272 4257 4261 4248 4222 4189 4154 4126 4075 4045 4011 3983 3963 3959 3954 3978 3996 4025 4079 4100 4050 3985 3934 3895 3842
1257 1483 1666 1759 1854 1902 1880 1847 1742 1732 1677 1621 1627 1694 1778 1810 1848 2496 3243 3600 3814 4106 4330 4626 4831 5000 4929 4611 4289 4111 3977 4038 4693 4572 4452 4504 4490 4485 4404 4362 4342 4315 4310 4268 4243 4206 4188 4163 4142 4137 4132 4147 4203 4273 4327 4362 4352 4307 4245 4229 4220 4183 4134
970 1222 1396 1571 1731 1799 1797 1783 1792 1755 1708 1582 1579 1550 1602 1593 1631 1643 1851 2614 3292 3685 3990 4545 4675 4901 4979 4872 4510 4276 4121 4186 4837 4713 4652 4681 4722 4726 4693 4693 4628 4521 4502 4448 4434 4394 4379 4346 4327 4372 4439 4458 4508 4581 4629 4607 4543 4507 4434 4412 4370 4321 4244
283 768 1076 1191 1425 1730 1816 1837 1842 1842 1733 1588 1536 1546 1569 1611 1626 1762 1915 2252 2633 3121 3604 4307 4605 4697 4888 4907 4824 4503 4435 4470 4905 4750 4683 4686 4758 4806 4869 4888 4906 4890 4845 4822 4790 4792 4825 4826 4848 4813 4739 4766 4822 4812 4803 4769 4668 4514 4465 4393 4348 4284 4191
0 141 981 1114 1250 1526 1755 1886 1919 1836 1752 1622 1561 1529 1479 1573 1779 1962 2180 2308 2467 2918 3435 4007 4508 4511 4758 4848 4866 4756 4649 4628 4789 4751 4733 4676 4660 4732 4865 4901 5049 5144 5176 5150 5200 5217 5193 5170 5152 5090 5041 5011 4941 4829 4806 4807 4574 4443 4388 4302 4218 4136 4042
3 16 493 1107 1228 1309 1390 1686 1928 1858 1830 1708 1586 1523 1446 1390 1584 1720 2030 2320 2311 2653 3063 3677 4288 4483 4446 4713 4820 4854 4789 4687 4707 4717 4747 4699 4731 4789 4881 4983 5016 5067 5260 5401 5430 5408 5422 5382 5335 5225 5168 5158 5097 4989 4876 4799 4764 4604 4402 4335 4177 4038 3898

ECMWFFLT1_con_mucape_069.txt.gz
CAPE
911 934 914 906 913 888 879 947 993 1048 1198 1405 1401 1385 1452 1463 1588 1672 1642 1718 1707 1805 1806 1767 1764 1719 1738 1765 1778 1851 1837 1885 1920 1863 1906 1927 1871 2031 2146 2092 2140 2411 2336 2534 2660 2917 3279 3333 3344 3461 3536 3585 3540 3626 3686 3602 3492 3412 3534 3612 3375 3204 3278
753 851 891 866 898 899 945 1024 999 1039 1215 1323 1364 1415 1380 1526 1704 1849 1785 1910 1844 1890 1899 1798 1812 1822 1838 1862 1842 1885 1838 1812 1829 1822 1870 1976 2074 2240 2143 2214 2200 2516 2643 2593 2784 3152 3279 3308 3198 3403 3474 3512 3412 3578 3516 3553 3578 3545 3456 3642 3272 3083 3032
547 741 849 840 827 875 1012 982 1094 1002 1052 1129 1257 1340 1389 1637 1885 1828 1884 1908 1898 1940 1927 1827 1905 1902 1866 1923 1895 1904 1856 1821 1788 1803 1781 1791 1889 1630 1907 2123 2203 2270 2310 2544 2874 2995 2987 3052 3163 3285 3382 3373 3296 3535 3517 3459 3560 3534 3604 3809 3485 3023 3059
428 631 801 859 887 938 1017 1059 1042 944 977 1029 1136 1294 1446 1834 1806 1908 1996 1876 1938 1982 2044 1917 1948 1913 1938 2021 1975 1981 1889 1859 1832 1696 1588 1629 1697 1685 1945 2110 2121 2013 2312 2343 2357 2561 2562 2799 3023 3184 3244 3313 3473 3477 3446 3381 3330 3530 3623 3753 3455 3126 3044
425 573 715 866 884 993 1015 937 1010 1004 957 957 1087 1273 1369 1665 1592 1801 1850 1791 1775 1860 1894 1909 1849 1945 2069 2064 1974 1951 1934 1915 1893 1733 1686 1649 1788 1906 1902 1704 1873 1900 1996 2053 2262 2575 2681 2854 2704 2905 3106 3229 3294 3441 3470 3517 3374 3608 3523 3365 3169 2911 2890
339 509 622 820 857 868 883 928 931 916 914 914 1036 1240 1335 1373 1375 1484 1623 1824 1782 1796 1915 1920 1881 2034 2154 2098 2009 1981 2026 2029 1994 1949 1862 1845 1926 1879 1767 1724 1732 1803 1801 2057 2040 2155 2504 2544 2522 2683 2727 2841 2805 2808 3042 3316 3343 3428 3516 3362 3074 2936 2836
311 461 556 672 757 855 889 887 846 871 900 902 971 1134 1210 1203 1300 1332 1439 1624 1687 1817 1836 1848 1831 1978 2263 2160 2132 2217 2205 2111 2072 1997 1902 1914 1943 1849 1789 1824 1807 1739 1764 1995 1959 1985 2156 2393 2529 2669 2716 2592 2747 2705 2962 3341 3326 3413 3539 3395 3069 2896 2970
407 539 630 637 652 746 827 881 844 832 837 860 907 1040 1023 1108 1215 1292 1397 1509 1628 1727 1771 1755 1776 2028 2111 2129 2160 2202 2264 2124 2065 2053 1951 1911 1872 1871 1840 1896 1909 1847 1868 1957 2017 1979 1930 2218 2322 2594 2650 2550 2737 2965 3041 3414 3592 3368 3434 3421 3270 3140 2918
291 563 553 483 572 619 736 883 867 832 898 926 949 1077 1052 1100 1183 1261 1378 1442 1531 1589 1684 1640 1734 1820 2138 2224 2270 2307 2240 2173 2192 2112 2051 1911 1866 1787 1726 1821 1882 1873 1877 1710 1728 1972 1884 2057 2099 2528 2701 2650 2761 3071 3124 3338 3369 3300 3340 3443 3522 3460 3286
205 581 714 552 522 488 644 853 924 974 984 1036 1087 1158 1060 1069 1183 1254 1357 1401 1464 1514 1581 1599 1696 1811 2126 2153 2118 2186 2250 2255 2192 2020 1998 1897 1870 1812 1739 1691 1798 1892 1806 1711 1664 1871 1995 1997 2124 2538 2860 2758 2829 3040 3080 3156 3206 3216 3312 3468 3523 3579 3666
89 719 856 576 587 630 769 840 987 1214 1199 1221 1256 1055 1186 1159 1180 1262 1377 1396 1454 1472 1542 1607 1694 1772 1950 1949 1941 2000 2200 2190 2096 2039 1990 1889 1849 1833 1742 1675 1665 1776 1759 1722 1669 1766 1987 2116 2226 2483 2723 2510 2708 2899 2971 2994 3126 3212 3029 3143 3314 3424 3437
80 476 948 774 799 847 752 1077 1185 1343 1531 1452 1105 975 1258 1387 1235 1213 1362 1447 1464 1467 1565 1574 1628 1716 1844 1826 1825 2009 2178 2197 2068 1952 1956 1914 1838 1809 1748 1690 1643 1684 1778 1759 1776 1798 1857 2099 2142 2232 2541 2516 2580 2791 2977 3033 3108 3212 3186 2939 3144 3313 3314
43 198 597 610 936 917 1303 1430 1622 1716 1749 1317 1008 972 1202 1158 1185 1222 1515 1508 1419 1477 1534 1639 1663 1790 1794 1818 1802 2096 2259 2166 2071 2009 1938 2002 1897 1852 1802 1708 1651 1632 1726 1783 1822 1844 1868 1911 2166 2264 2359 2589 2638 2632 2907 3048 3083 3217 3247 3205 3187 3307 3428
60 99 171 642 861 1092 1346 1718 1788 1782 1681 1284 1050 1085 1042 1068 1118 1205 1572 1506 1453 1493 1577 1644 1727 1828 1874 1837 1913 2214 2366 2251 2169 2040 2068 2052 2119 2035 1886 1807 1743 1768 1740 1820 1871 1840 1905 1927 2022 2271 2345 2421 2583 2687 2814 3058 3096 3162 3278 3276 3220 3243 3325
0 4 179 320 882 1396 1428 1445 1742 1858 1653 1470 1211 1167 1118 1132 1168 1370 1591 1487 1549 1511 1634 1779 1817 1928 1880 1940 2030 2353 2470 2325 2277 2196 2194 2171 2268 2177 2042 1955 1923 1890 1897 1915 1897 1848 1905 1976 1985 2176 2345 2356 2524 2677 2748 2870 2992 2976 3160 3188 3264 3234 3130
0 0 0 64 575 751 1476 1619 1678 2016 1954 1788 1273 1310 1163 1196 1378 1482 1480 1506 1485 1629 1671 1800 1950 1990 1890 1996 2231 2510 2462 2487 2416 2369 2356 2328 2411 2388 2218 2108 2075 1991 1996 2011 2012 1993 1994 2000 2073 2098 2243 2378 2547 2722 2780 2828 2891 2813 2483 2587 3061 3251 3105
0 0 0 0 72 801 1114 1342 1628 1929 1926 1817 1693 1602 1296 1492 1383 1279 1212 1474 1516 1610 1641 1952 2164 2122 2009 2133 2381 2437 2432 2554 2484 2438 2429 2424 2401 2412 2374 2287 2234 2184 2183 2131 2100 2066 2148 2144 2092 2092 2090 2214 2298 2488 2593 2671 2716 2452 2236 2116 2102 2642 3175
629 0 0 0 0 296 1012 1152 1619 1831 1835 1646 1532 1613 1514 1627 1370 1396 1256 1407 1410 1575 1706 1742 1923 2017 2219 2277 2411 2407 2500 2439 2412 2376 2405 2408 2353 2386 2352 2325 2286 2338 2333 2227 2220 2304 2221 2263 2156 2220 2079 2052 2164 2252 2397 2533 2315 2165 2032 1947 1927 1944 2596
1974 582 0 0 0 182 497 836 1314 1728 1564 1567 1475 1462 1437 1572 1426 1510 1460 1715 1571 1520 1558 1674 1774 1967 2279 2194 2346 2489 2464 2403 2434 2424 2390 2388 2348 2371 2379 2389 2395 2363 2288 2175 2210 2255 2345 2290 2183 2251 2260 2191 2315 2267 2263 2403 2162 1964 1824 1789 1766 1837 1942
2212 1025 104 1 0 1 358 977 1219 1594 1668 1828 1695 1536 1504 1497 1451 1637 1640 1787 1895 1698 1978 2035 2018 2240 2167 2310 2431 2473 2469 2548 2474 2448 2431 2443 2425 2448 2431 2404 2372 2327 2274 2217 2290 2341 2375 2243 2302 2345 2444 2383 2393 2483 2397 2339 2230 2003 1804 1675 1651 1679 1722
2429 1615 191 38 100 34 840 1385 1558 1724 1920 1651 1561 1619 1684 1632 1611 1850 1996 2078 1880 2026 2418 2246 2163 2357 2307 2422 2471 2538 2540 2589 2513 2537 2528 2552 2512 2481 2464 2429 2445 2375 2291 2192 2250 2404 2404 2332 2316 2366 2408 2412 2330 2407 2411 2254 2053 2017 1875 1724 1650 1630 1660
2287 2380 1463 248 504 734 1284 1027 1319 1364 1558 1514 1526 1598 1594 1635 1594 1649 1803 1921 2052 2089 2316 2318 2410 2374 2443 2454 2481 2522 2541 2568 2586 2631 2647 2637 2560 2512 2491 2522 2545 2548 2431 2269 2195 2253 2263 2400 2303 2338 2410 2395 2343 2211 2247 2231 1778 1752 1747 1724 1692 1674 1683
2064 2499 2139 1035 682 997 1653 1420 1594 1337 1885 1613 1553 1561 1591 1642 1673 1772 2048 2079 2141 2476 2435 2473 2559 2510 2492 2500 2512 2462 2480 2477 2544 2698 2733 2700 2633 2596 2562 2624 2643 2617 2545 2432 2298 2289 2315 2380 2357 2402 2401 2390 2376 2362 2338 2350 2044 1657 1508 1460 1486 1539 1573
2167 2536 2181 919 885 1418 1662 1514 1626 2097 1516 1722 1574 1642 1842 1875 1921 2359 2407 2270 2598 2695 2656 2562 2552 2624 2685 2485 2526 2536 2531 2561 2626 2773 2802 2850 2783 2716 2654 2640 2621 2630 2600 2563 2444 2312 2418 2450 2455 2468 2499 2410 2430 2390 2480 2437 2339 1890 1673 1527 1404 1345 1600
2260 2484 2533 1715 988 1090 1250 1822 1731 1721 1896 1754 1842 2114 2324 2211 2313 2399 2611 2771 2557 2413 2515 2563 2596 2740 2832 2786 2756 2741 2740 2733 2796 2888 2901 2968 2915 2800 2781 2772 2784 2675 2703 2632 2553 2500 2598 2521 2543 2598 2608 2524 2247 2301 2322 2446 2406 2214 2137 2012 1872 1717 1805
1971 2214 2520 2357 1559 1422 2064 2550 2347 1749 1909 1809 2181 2156 2302 2269 2110 2182 2452 2683 2540 2531 2655 2750 2916 2970 2947 2869 2933 2971 2989 2954 3148 3126 2948 3038 3052 3038 3024 3028 2897 2918 2915 2822 2696 2714 2734 2695 2685 2689 2732 2457 2498 2532 2528 2511 2503 2490 2421 2359 2278 2187 2078
1728 1976 2221 2445 2652 2469 2045 2162 2071 1888 1716 2230 2754 2219 2071 2065 2174 2705 2942 2913 2759 2802 2849 3107 3280 3386 3374 3290 3205 3219 3244 3138 3260 3222 3074 3122 3206 3186 3130 3146 3123 3034 3078 2984 2850 2903 2964 2934 2791 2636 2692 2748 2808 2827 2832 2849 2827 2810 2793 2726 2628 2510 2382
1908 1812 2048 2191 2536 2824 2856 1995 2430 2354 2211 2695 2228 2151 2339 2546 2668 2869 3062 2956 2960 3169 3030 3522 3806 3750 3803 3890 3570 3437 3446 3417 3511 3433 3249 3346 3463 3552 3508 3389 3238 3207 3218 2840 2999 3158 3206 3204 2873 2957 3035 3112 3179 3207 3208 3202 3193 3158 3119 3014 2873 2754 2626
1999 1881 1785 2002 2231 2393 2699 3177 3256 2878 2381 2014 1970 2015 2149 2183 2759 2884 3026 3053 3299 3108 3276 3543 3454 3774 3815 3870 3656 3812 3717 3695 3732 3611 3496 3615 3752 3866 3798 3736 3579 3549 3556 3503 3417 3430 3244 3311 3167 3182 3242 3286 3323 3351 3389 3404 3408 3373 3368 3314 3203 3079 2924
2247 2288 2059 1846 1896 2003 2537 2895 3021 3061 2873 2120 2218 2423 2450 2573 3273 3301 3333 3241 3527 3543 3539 3733 3807 3883 3886 3944 3971 4049 3929 3977 4012 3941 3777 3960 4124 4072 4005 4016 3938 3842 3820 3781 3646 3515 3248 3230 3276 3303 3349 3369 3410 3425 3462 3587 3540 3554 3534 3510 3464 3353 3196
2563 2588 2580 2553 2509 2340 2242 2570 2899 2992 3160 3465 3654 3380 3202 3300 3677 3742 3616 4507 4337 4082 3894 3993 3995 3972 3969 3859 3947 4108 4028 4157 4144 4132 4129 4270 4358 4271 4214 4235 4176 4028 3987 3814 3687 3439 3380 3404 3414 3452 3464 3498 3522 3551 3592 3620 3638 3652 3628 3594 3560 3505 3395
2702 2704 2751 2795 2831 2774 2595 2487 2518 2704 2846 3020 3463 3970 4326 4217 4112 4223 4664 4367 4572 4455 4522 4359 4226 4145 3979 3920 4064 4172 4141 4335 4298 4490 4494 4496 4370 4271 4318 4202 4251 4120 4167 3959 3580 3509 3517 3532 3527 3578 3596 3613 3648 3660 3724 3733 3733 3731 3710 3672 3611 3560 3501
2735 2800 2918 3054 2992 2994 3082 2983 2808 2600 2520 2549 2803 3204 3588 4014 4267 4406 4310 4529 4698 4835 5104 4818 4684 4667 4741 4727 4482 4454 4320 4280 4142 4292 4438 4503 4375 4383 4452 4368 4412 4262 4279 4126 3954 3702 3810 3629 3646 3666 3671 3688 3715 3751 3930 3813 3807 3786 3764 3720 3694 3634 3562
2778 2800 2923 2927 3020 3194 3239 3252 3245 3058 2860 2826 2854 2946 3078 3309 3638 3835 4126 4442 4664 4696 4870 4992 4827 4748 4650 4691 4757 4724 4766 4729 4500 4592 4588 4650 4518 4473 4492 4445 4385 4449 4423 4269 4132 4081 3725 3854 3741 3657 3663 3719 3952 4048 4069 3823 3820 3806 3794 3770 3754 3694 3640
2708 2785 2969 2914 2997 3072 3211 3273 3371 3422 3328 3198 3244 3295 3390 3511 3701 3927 4256 4571 4780 5164 5103 5011 5153 5181 4920 4578 4431 4313 4270 4486 4634 4643 4700 4857 4930 4316 4261 4329 4555 4631 4578 4156 4460 4345 4217 4207 4114 4156 4014 3977 4104 4187 4183 4164 3908 3824 3778 3792 3799 3798 3773
2565 2686 2851 2916 3043 3120 3111 3154 3274 3430 3578 3539 3598 3596 3593 3651 3725 3814 3899 4095 5016 5691 5423 4853 5021 5572 5565 5226 5056 4871 4420 4413 4508 4347 4478 4414 3810 3850 3910 3944 4131 4182 4164 4920 4204 3935 3788 3807 4500 4242 4167 3936 4141 4282 4430 4459 3927 3931 3976 3958 3938 3918 3884
2328 2578 2792 2733 2884 2998 3116 3129 3195 3301 3422 3487 3560 3586 3615 3750 3771 3796 3784 3814 4106 5092 5684 5724 5678 5599 5334 5085 5330 5118 5022 4832 4754 4950 4668 3794 3596 3574 3578 3621 3737 3842 3924 3932 4056 3976 3912 3932 3966 3973 3972 4554 4724 4065 4070 4066 4063 4087 4072 4052 4031 4010 4007
1992 2212 2393 2519 2492 2373 2316 2434 2483 2282 2239 2434 2506 2802 2696 2901 2984 2936 3183 3464 3706 3912 4747 5505 5760 5754 5572 5502 5221 4561 4911 4935 4468 4018 3956 3872 3765 3733 3654 3641 3707 3713 3796 3891 3959 3939 3994 4055 4083 4072 4058 4090 4451 4201 4293 4286 4250 4236 4247 4219 4191 4165 4154

ECMWFFLT1_con_mucape_072.txt.gz
CAPE
1044 1449 1613 1804 1946 2002 2052 2177 2363 2317 2354 2450 2471 2346 2333 2445 2551 2649 2694 3005 3203 3413 3272 3087 2626 2278 2046 2101 1756 1910 1857 2136 2224 2406 2516 2740 2416 2311 2480 2517 2448 2470 1991 1964 2093 2018 2510 2802 2620 2712 2894 3104 3210 3143 3388 3431 3398 3148 3073 3288 3094 2974 3118
619 1007 1383 1631 1802 1880 1974 2184 2267 2257 2337 2395 2485 2595 2415 2433 2526 2626 2763 2966 3194 3380 3204 2999 2813 2424 2112 2130 2023 2129 2146 2006 2256 2278 2446 2783 2733 2594 2698 2831 2648 2821 2587 1925 1962 2596 2542 2884 3043 3010 2983 2953 3146 3144 3063 3412 3425 3321 2874 3350 3227 3137 3059
302 729 1143 1534 1688 1761 1957 2021 2240 2208 2233 2305 2430 2492 2407 2547 2730 2762 2734 2904 3145 3281 3232 3045 2799 2474 2280 2295 2169 2080 1813 2112 2138 2105 2265 2409 2870 2506 2668 2966 2905 2689 2681 2316 2193 2674 3018 3037 3420 3314 3029 2716 2568 2889 3114 3098 3295 3196 3075 3324 3252 2982 3100
50 368 763 1383 1710 1839 1962 2020 2161 2166 2191 2193 2345 2406 2516 2735 2745 2718 2794 2896 3090 3206 3272 3052 2818 2491 2479 2433 2486 2390 2260 2214 2226 1960 2109 2438 2864 2800 2757 2936 2994 2482 2533 2512 2264 2074 2186 2984 3165 3654 3489 3166 3018 2724 2936 2937 2789 3131 3152 3320 3106 3008 3160
24 76 334 1179 1579 1796 1902 1927 2107 2176 2072 2096 2275 2513 2574 2631 2699 2711 2783 2821 2908 3040 3091 3067 2804 2726 2853 2724 2586 2560 2354 2252 2255 2269 2263 2569 2897 3033 2762 2705 2800 2530 2208 2426 2404 2658 2598 2980 3077 3280 3692 3651 3295 3133 3109 3264 2947 3208 3303 3204 3142 2888 2816
38 94 243 734 1368 1714 1861 1896 1953 2036 2042 2069 2172 2376 2479 2536 2536 2538 2587 2799 2869 2894 3018 3036 2918 2934 2942 2796 2577 2359 2407 2470 2381 2466 2453 2520 2589 2715 2864 2768 2556 2687 2188 2356 2422 2577 3019 3029 2936 2943 3015 3290 3025 2428 2516 2817 2893 2926 3394 3294 3182 2734 2559
0 95 281 544 1229 1634 1786 1811 1803 1977 2009 1933 2046 2345 2371 2358 2405 2373 2570 2744 2772 2835 2903 2945 2841 2856 3014 2922 2864 2718 2584 2503 2561 2595 2558 2558 2553 2805 2905 2809 2640 2702 2414 2493 2475 2496 2889 3210 2986 2754 3007 2772 2756 2395 2254 2692 2678 2874 3184 3439 3481 3306 3263
0 94 504 784 992 1299 1593 1802 1837 1852 1933 1916 1977 2168 2144 2137 2256 2393 2526 2561 2606 2611 2662 2693 2743 2846 3040 3001 2826 2792 2787 2673 2551 2633 2737 2667 2841 2787 2859 2863 2973 2797 2697 2470 2734 2746 2725 3081 3060 2952 2875 2876 2888 3008 2892 3056 3455 2906 3042 3350 3561 3520 3265
0 124 628 758 958 1026 1330 1727 1833 1784 1970 1927 1891 2049 2109 2168 2169 2278 2518 2506 2525 2417 2561 2522 2670 2704 3062 3044 3066 3166 3127 2904 2871 2877 2889 2927 2774 2669 2721 2917 2984 2724 2789 2503 2521 2873 2774 2786 2837 3065 3256 3138 3108 3324 3332 3396 3598 3313 2933 3222 3707 3856 3147
0 110 688 645 641 692 1158 1673 1934 1900 1974 2003 1935 2038 2137 2143 2237 2357 2361 2382 2400 2375 2475 2490 2587 2714 3055 3144 3133 3124 3177 3210 3128 3084 3104 2840 2666 2690 2681 2573 2742 2788 2768 2684 2426 2629 2921 2714 2629 3044 3403 3555 3407 3428 3629 3658 3563 3505 3331 3399 3680 3791 3722
0 206 954 820 663 838 1112 1390 1828 1991 2013 2232 2118 1933 2158 2140 2202 2277 2229 2247 2283 2334 2367 2526 2609 2707 3000 3154 3062 3094 3238 3258 3068 3046 3010 2807 2634 2670 2610 2455 2494 2758 2784 2740 2430 2341 2689 2886 2841 2992 3308 3530 3570 3542 3622 3712 3717 3615 3194 3176 3493 3610 3482
229 963 1592 1619 1182 1134 1151 1536 2010 2200 2220 2317 2085 1938 2198 2333 2220 2162 2110 2145 2202 2377 2447 2531 2562 2664 2944 3046 3004 3207 3310 3424 3128 2990 3034 2901 2706 2580 2538 2414 2416 2635 2821 2724 2630 2329 2283 2888 2978 2837 3264 3539 3592 3598 3761 3809 3759 3818 3628 2927 3109 3508 3456
15 127 538 872 1168 1204 1445 1771 2104 2195 2373 2210 2033 1888 2098 2163 2139 2036 2177 2248 2203 2317 2416 2536 2579 2726 2886 3098 2939 3182 3503 3438 3116 3065 2944 3090 2766 2586 2563 2474 2385 2423 2665 2778 2653 2441 2323 2512 3012 3051 3134 3544 3608 3481 3702 3893 3854 3971 3975 3516 3063 3206 3670
9 10 218 530 876 1146 1483 1813 2248 2462 2446 2224 1981 1887 1988 2138 2058 2093 2186 2208 2159 2243 2363 2520 2582 2748 2911 3060 3051 3307 3451 3516 3440 3042 3132 3121 3237 2978 2695 2607 2459 2502 2628 2867 2757 2448 2364 2357 2658 3111 3146 3393 3579 3508 3456 3843 3988 4063 4122 3996 3484 3126 3518
0 0 97 468 1045 1483 1649 1841 2612 2729 2705 2321 1978 1875 2012 2070 2052 2153 2221 2233 2257 2159 2382 2571 2624 2700 2826 3074 3143 3369 3592 3643 3510 3316 3273 3281 3416 3241 2956 2874 2836 2794 2841 2972 2870 2535 2390 2400 2381 2851 3172 3228 3366 3424 3315 3428 3820 3888 4017 4011 3981 3593 3258
18 0 0 39 881 1394 2111 2151 2628 2873 2861 2658 2096 2039 1893 2019 2163 2142 2180 2234 2196 2255 2321 2522 2659 2838 2937 3080 3211 3432 3667 3732 3681 3572 3447 3445 3463 3500 3281 3106 3111 2980 2951 2972 2999 2905 2744 2621 2576 2620 2975 3266 3398 3430 3401 3319 3532 3628 3228 3458 3912 3919 3217
182 592 688 906 13 907 1530 2156 2405 2927 2945 2846 2218 1966 1866 2096 2232 2136 2133 2304 2273 2305 2295 2506 2873 3001 3039 3202 3325 3501 3777 3827 3730 3656 3587 3571 3600 3664 3584 3345 3301 3243 3209 3212 3246 3172 3148 3000 2816 2662 2739 3070 3320 3457 3394 3445 3373 3009 2967 2884 3040 3578 3944
1790 2156 1990 2137 2356 1041 429 1638 1960 2856 2904 2660 2178 2021 1904 2199 2222 2199 2134 2335 2302 2233 2249 2505 2802 2950 3196 3182 3374 3720 3942 3892 3857 3787 3721 3661 3708 3848 3699 3592 3493 3477 3446 3352 3381 3421 3274 3171 3103 3110 2825 2844 3122 3263 3380 3498 3075 2936 2774 2612 2554 2795 3279
2032 2246 2450 2636 2807 3052 1997 414 1122 2478 2710 2343 2043 1899 1891 2154 2164 2269 2259 2521 2467 2325 2261 2540 2788 3080 3288 3280 3512 3840 4011 3953 3905 3811 3837 3898 3875 3920 3820 3690 3594 3584 3556 3373 3416 3486 3495 3455 3309 3262 3138 2907 3076 3079 3190 3381 3024 2806 2615 2475 2320 2171 2280
2159 2286 2514 2667 2971 3192 2687 1560 520 1163 2500 2641 2355 1800 1934 2182 2114 2274 2241 2512 2559 2453 2626 2752 2962 3278 3263 3408 3709 3894 4053 4003 3934 3970 3922 3949 3935 3954 3932 3887 3796 3711 3632 3537 3586 3584 3619 3403 3450 3413 3426 3279 3168 3173 3094 3119 2715 2667 2507 2324 2193 2096 2010
2133 2338 2518 2688 2906 3107 3012 1650 572 495 1755 2402 2058 1929 2057 2094 2130 2372 2393 2644 2594 2546 2722 2927 3107 3335 3419 3503 3784 3922 3992 3980 3971 3993 4000 3991 3982 3938 3985 3889 3934 3805 3656 3472 3500 3622 3662 3628 3569 3522 3618 3516 3303 3149 3071 2887 2488 2511 2463 2284 2074 1939 1858
1928 2138 2319 2522 2716 3007 3263 2359 764 198 774 2292 2005 1790 1934 2152 2030 2244 2366 2598 2607 2644 2825 3074 3284 3512 3566 3528 3796 3933 3889 3957 3963 3971 3964 3995 3992 3927 3884 3929 3903 3908 3697 3419 3348 3433 3514 3606 3468 3522 3534 3491 3426 3068 3102 2982 2451 2423 2356 2286 2144 1952 1769
1709 1937 2082 2300 2478 2842 3000 2418 1100 481 836 1970 1782 1587 1989 2114 1990 2060 2165 2574 2647 2681 2889 3266 3378 3534 3671 3541 3732 3846 3775 3653 3685 3860 3845 3883 3850 3818 3818 3864 3837 3825 3759 3561 3345 3267 3363 3498 3399 3439 3370 3421 3449 3437 3294 3262 2912 2432 2298 2202 2117 1986 2046
1654 1931 2004 2252 2608 2750 2169 1366 1111 1052 1208 2029 1848 1609 1976 2159 2038 2247 2620 2699 2754 2796 3113 3150 3148 3441 3667 3566 3654 3615 3601 3611 3653 3765 3831 3950 3870 3817 3731 3732 3815 3811 3697 3585 3304 2971 3096 3314 3539 3516 3397 3279 3370 3298 3529 3407 3139 2696 2409 2195 2033 1939 2413
1610 1865 2086 2266 2478 2434 1419 1288 1403 1179 1626 2184 1919 1924 2384 2338 2242 2339 2948 2909 2873 2978 3068 3027 3108 3376 3566 3490 3493 3527 3550 3585 3597 3720 3774 3835 3805 3738 3713 3744 3759 3656 3614 3518 3398 3135 3142 3141 3309 3384 3409 3288 3188 3002 3165 3438 3211 2826 2611 2326 2098 1931 2598
1622 1863 1968 2188 2345 2690 2131 1615 1793 1466 1986 1985 1966 2169 2687 2368 2402 2628 3071 2965 2728 2754 2923 2990 3170 3378 3402 3356 3387 3541 3490 3456 3660 3735 3693 3830 3788 3824 3724 3665 3572 3632 3678 3610 3400 3301 3184 3094 3163 3331 3406 3347 3224 3173 3031 3077 3583 3035 2726 2514 2294 2104 2406
1379 1651 1906 1914 2351 2611 2208 2012 2038 2036 1794 1933 2255 2412 2580 2300 2471 2691 3059 2915 2914 2872 2786 3014 3124 3244 3401 3413 3352 3386 3448 3434 3602 3662 3625 3723 3859 3783 3648 3629 3599 3464 3585 3541 3311 3374 3382 3206 3202 3193 3431 3386 3406 3427 3304 3225 3325 3996 2889 2727 2518 2333 2326
1406 1349 1723 2000 2207 2555 2722 1994 2144 1950 1932 2334 2654 2557 2514 2582 2768 3376 3334 3224 3095 3086 2873 3036 3228 3437 3554 3561 3363 3383 3413 3392 3556 3620 3509 3671 3876 3931 3862 3762 3595 3544 3635 3480 3517 3620 3616 3655 3455 3442 3463 3530 3622 3685 3654 3446 3073 3996 3035 2776 2592 2542 2562
1529 1333 1497 1913 2146 2302 2600 2612 2017 2071 2067 2462 2662 2665 2683 2791 3342 3540 3478 3414 3455 3245 3074 3172 3426 3639 3740 3814 3505 3453 3535 3593 3636 3669 3503 3576 3860 4043 4048 3930 3733 3735 3804 3815 3828 3915 3886 4077 3924 3829 3773 3839 3939 3806 3851 3937 4108 3054 3124 2992 2862 2812 2841
1731 1626 1438 1625 1875 2510 2352 2809 3050 2182 2083 2549 2557 2533 2786 2978 3487 3687 3826 3805 3739 3272 3203 3562 3769 3976 4058 3997 3776 3775 3819 3808 3802 3937 3748 3876 3968 4186 4301 4240 4071 4049 4063 4213 4076 3973 3912 3858 3760 3669 3627 3656 3690 3748 3957 4364 4065 3560 3285 3091 2998 3078 3110
1782 1723 1583 1669 1990 2513 2605 2567 3205 3193 2415 2405 2434 2611 2879 2959 3672 4052 4039 4041 3865 3515 3572 3961 4208 4382 4358 4220 4058 4068 4092 4194 4177 4233 4130 4051 4156 4398 4498 4576 4445 4374 4430 4420 4150 3869 3822 3746 3866 3958 3884 3844 3696 3967 4103 4183 3784 4256 3652 3541 3338 3349 3366
2082 2054 1973 1910 1776 2270 2647 2680 2782 3319 3625 3472 3126 3046 3202 3406 3947 4250 4149 4226 4151 3881 4199 4686 4858 4744 4648 4532 4313 4469 4358 4376 4377 4585 4458 4392 4369 4565 4727 4728 4596 4527 4626 4352 4066 4025 3883 4076 4045 4068 4057 4170 4220 3887 4123 3847 4306 4478 4277 3890 3752 3611 3571
2216 2268 2249 1991 1898 1947 2234 2710 3026 3059 3227 3507 3611 3616 3092 3392 3514 3986 4019 4446 4339 4193 4836 4916 5037 4868 4759 4770 4569 4641 4466 4544 4456 4598 4664 4563 4524 4683 4817 4747 4783 4718 4761 4374 4152 4141 4206 4076 4115 4183 3735 3823 4269 4273 4299 4337 4368 4588 4746 3985 3982 3875 3662
2263 2450 2407 2281 2386 2174 2059 2138 2539 3076 3220 3228 3437 3997 4186 4377 4434 4669 4862 4473 3994 3924 4551 4550 4782 4679 4661 4708 4639 4759 4768 4688 4502 4532 4774 4720 4603 4557 4739 4723 4696 4882 4855 4728 4453 4444 4375 4130 4101 4088 3912 3941 4352 4413 4278 4129 4375 4581 4630 4430 4176 4030 3820
2290 2557 2536 2546 2601 2521 2490 2221 2083 2325 2686 3033 3500 3658 3845 3929 4139 4340 4448 4162 3994 4142 4622 4648 4623 4507 4684 4692 4706 4661 4727 4754 4641 4605 4681 4935 4904 4822 5955 6021 4948 4910 4892 4850 5071 4901 4750 4678 4055 4038 4040 4524 4494 4095 4562 4657 4154 4349 4219 5505 4239 5308 4229
2299 2403 2605 2732 2857 2748 2527 2344 2133 2152 2177 2441 3012 3207 3574 3884 4238 4408 4602 4873 4982 5066 5263 4926 4653 4554 4814 4829 4895 4870 4842 4754 4775 4585 4544 4906 5097 4587 4271 4234 4483 4385 4491 5138 4636 4437 4221 3990 4908 5115 5055 4344 4500 4581 4896 4789 4045 4549 4007 4092 4174 4100 3807
2216 2535 2544 2726 2818 2736 2674 2612 2418 2280 2371 2467 2642 2682 2852 3060 3567 3926 4508 4897 5294 5316 4984 5167 4922 4610 4871 4758 4975 5188 5100 5202 5176 5046 4906 5023 5430 5199 4396 4198 4314 4387 4314 4336 4636 4486 4355 4250 4137 4246 4375 4124 5124 4059 4058 4060 4060 4075 4123 4178 3997 3803 3815
1456 1767 2296 2604 2678 2762 2760 2774 2713 2618 2540 2630 2746 2902 3022 3263 3326 3446 3778 4335 4764 5642 5814 5464 5452 5249 5301 5223 5308 5183 5068 5014 5110 5300 5472 5309 5384 5421 4828 4506 4336 4196 4231 4294 4355 4415 4390 4268 4106 4075 4209 4243 4182 4212 4105 4103 4087 3978 3938 3912 3899 3908 3867

ECMWFFLT1_con_mucape_075.txt.gz
CAPE
272 710 899 957 1243 1250 2019 2524 2587 2549 2527 2696 2656 2357 2195 2192 2424 2802 3044 3437 3777 3915 3780 3691 3490 3188 2878 2715 2574 2523 2396 2303 2205 2212 2461 2753 2773 2504 2618 2463 2206 2042 1782 2142 2348 1687 1814 1864 1750 2039 2260 2743 2953 2968 3298 3517 3420 3160 3235 3414 3223 3050 2979
504 207 869 1369 1152 1400 2575 2725 2684 2590 2605 2717 2866 2702 2254 2408 2620 2719 3089 3549 3831 3824 3816 3809 3649 3301 3133 3010 2822 2584 2474 2376 2301 2362 2462 2788 3070 2956 2566 2519 2168 2304 2113 1779 1843 2026 2043 2278 2009 2230 2412 2773 2947 3140 3094 3324 3480 3281 2768 3240 3320 3414 3308
180 290 722 722 839 1509 2555 2735 2809 2685 2677 2742 2806 2664 2577 2780 2800 2998 3360 3662 4007 4044 3886 3974 4020 3732 3311 3139 2837 2749 2470 2323 2365 2441 2466 2566 3068 2920 2790 2600 2372 2321 2264 1869 1586 1882 1920 2542 2659 2486 2517 2667 2546 2970 3027 3096 3432 3327 2994 3034 3236 3176 3595
548 702 909 982 1300 1844 2470 2651 2896 2748 2663 2728 2846 2818 2727 2981 3079 3436 3437 3833 4110 4259 4092 4005 3914 3478 3139 3233 2868 2727 2503 2425 2465 2388 2378 2653 2892 2968 2879 2735 2751 2275 2586 2203 1579 1541 1681 2189 2778 2902 2857 2735 2430 2450 2906 2812 2764 3139 3114 3136 3197 2913 3372
0 181 514 682 1171 1724 2206 2612 2794 2914 2810 2763 2930 3079 3057 3104 3149 3322 3497 3712 3960 4110 4082 3961 3705 3292 3219 3097 2716 2552 2427 2475 2485 2431 2568 2612 2816 3096 2976 2707 2812 2363 2215 2351 1856 1802 1832 2170 2280 2667 2932 2846 2601 2625 2666 2799 2638 2910 3126 3279 3262 2828 3042
0 4 248 467 978 970 699 2024 2698 2757 2670 2702 2903 3157 3068 3007 3026 3026 3425 3640 3915 4059 4159 4151 3736 3373 3256 2953 2517 2457 2566 2553 2646 2748 2734 2656 2887 3136 3019 2880 2745 2642 1844 2408 1964 1857 1890 2085 2266 2481 2853 2924 2440 1832 2399 2801 2743 2775 3123 3304 3226 2768 2424
0 0 62 619 602 526 632 1818 2342 2700 2678 2552 2696 3045 2805 2666 3084 3260 3341 3523 3766 3994 4044 3998 3650 3412 3192 2964 2656 2728 2645 2546 2671 2669 2655 2766 2916 3189 3252 3065 2745 2663 2052 2251 2055 2089 2042 1989 2372 2457 2658 2275 2311 1788 2013 2614 2695 2727 2856 3315 3305 3151 2833
0 0 0 194 659 831 1036 981 2028 2598 2560 2408 2539 2830 3014 2975 3102 3136 3224 3368 3573 3671 3884 3840 3475 3382 3209 2966 2764 2645 2817 2680 2686 2795 2901 2835 2987 3149 3220 3178 2877 2863 2587 1943 2215 2131 2286 2463 2230 2260 2387 2249 2088 2113 1869 2558 2773 2383 2468 3182 3321 3261 2950
0 0 0 13 161 336 532 1125 1473 2279 2564 2434 2406 2771 2915 2799 2818 3109 3177 3236 3371 3598 3738 3605 3332 3213 3220 2993 2882 2909 3076 2899 3003 3010 2934 2734 3076 3036 2920 3072 3209 3026 2826 2211 2171 2224 2380 2770 2504 2493 2638 2446 2224 2543 2341 2701 2697 2598 2510 2842 3268 3400 2796
0 0 23 90 84 99 382 665 1744 2320 2667 2642 2532 2708 2923 3023 3058 3103 3126 3217 3391 3337 3531 3369 3194 3096 3352 3110 3207 3257 3359 3179 3036 2836 2839 2948 2890 2852 2612 2953 3509 3140 2886 2539 2091 2391 2488 2579 2776 2884 2969 2705 2541 2817 2758 2789 3004 2962 2565 2570 3061 3418 3400
0 0 51 18 101 91 180 450 1653 2653 2708 3193 2773 2510 2884 2904 3070 3121 3093 3166 3176 3174 3356 3249 3173 3168 3495 3416 3323 3043 3154 3019 2935 2787 2871 2778 2600 2693 2681 2762 2963 3121 3006 2720 2062 2036 2585 2635 2883 3201 3377 3050 2930 3153 3302 3140 3261 3318 2579 2485 2875 3408 3485
61 193 137 95 199 141 102 1330 2415 3122 3251 3231 2718 2589 3038 3062 2998 3056 3129 3140 3047 3191 3191 3049 3096 3138 3503 3335 3194 3222 3384 3099 2805 2784 2779 2709 2524 2571 2747 2562 2290 2778 2970 2738 2258 1946 2418 2896 2828 3058 3565 3718 3392 3356 3731 3550 3470 3424 3054 2361 2559 3057 3190
0 437 358 12 86 15 636 2806 3010 2980 3412 2876 2625 2484 2869 3067 2973 2907 3149 3118 3007 3145 3034 3064 3026 3222 3457 3399 3155 3265 3497 3296 2776 2738 2894 2954 2544 2657 2704 2345 2026 2177 2779 2750 2351 1999 2088 2778 3076 2878 3417 3808 3817 3740 3918 3911 3713 3910 3696 2916 2515 2889 3176
0 0 444 1089 1340 1414 1236 1508 3035 3279 3144 3002 2751 2428 2646 2905 2859 2801 2967 3107 3132 2794 2616 2806 2941 3120 3454 3428 3135 3471 3550 3552 3250 2635 3048 3051 3138 2819 2481 2285 2010 1989 2309 2697 2464 2134 2007 2253 2866 2952 3101 3674 3855 3829 4026 4210 3963 4150 4119 3640 2823 2520 3092
0 0 9 55 187 582 1069 1603 3048 3315 3108 3011 2737 2486 2471 2679 2807 2943 2953 3084 3109 2967 2950 3018 2969 3145 3424 3622 3472 3911 4052 3932 3474 3016 3097 3329 3332 2895 2597 2523 2411 2260 2498 2897 2694 2292 1918 1888 2232 2969 3079 3353 3689 3760 3602 3960 3938 3978 4089 4165 3474 2789 2672
0 0 0 1 181 490 1068 1538 2464 3456 3391 3437 2842 2626 2256 2540 2950 2795 2913 3072 2978 3029 2993 3076 3142 3436 3524 3709 3854 4076 4240 4246 4103 3551 3444 3398 3527 3582 3081 2775 2679 2321 2372 2895 2928 2748 2421 2163 1970 2452 3108 3278 3637 3720 3516 3599 4001 4008 3739 3974 3923 3242 2499
130 258 118 112 267 358 846 1043 1768 3119 3662 3576 3137 2786 2428 2535 2795 2834 2809 2995 2965 2980 2946 3039 3473 3513 3723 4002 4088 4287 4459 4398 4335 3922 3945 3860 3736 3675 3578 3508 3241 3308 3360 3296 3271 3388 3322 2583 2038 2033 2529 3162 3475 3710 3652 3285 3570 3735 3668 3684 3618 3576 3213
192 330 326 454 639 850 1306 1137 1456 2249 3232 3312 3092 2767 2481 2815 2698 2807 2719 2857 2851 2735 2862 3146 3389 3612 4031 4059 4237 4449 4686 4585 4475 4281 4148 4129 4098 4162 3904 3636 3559 3618 3531 3150 3330 3721 3229 2783 2590 2722 2194 2696 3210 3485 3539 3420 3098 3384 3498 3553 3513 3584 3680
499 314 223 567 676 1288 1552 1657 1137 1945 2695 2876 2837 2385 2303 2380 2492 2928 2834 3074 2916 2874 2875 3196 3369 3644 3970 4130 4386 4650 4852 4806 4825 4576 4312 4400 4510 4477 4295 4029 3878 3655 3497 3274 3561 3640 3676 3602 2963 2959 2709 2344 3043 3001 3314 3415 2849 3059 3326 3411 3396 3370 3484
1236 896 657 770 1396 776 1471 2890 3372 3335 2095 3030 3029 2421 2170 2308 2277 2854 2805 2876 3043 3019 3385 3522 3638 3847 3887 4243 4458 4618 4913 5037 4939 4711 4659 4750 4746 4775 4536 4254 4143 4014 3838 3777 3930 4034 3986 3477 3416 3308 3562 3015 2994 3598 3092 3429 2976 2890 3072 3181 3179 3153 3293
1626 1601 1643 1616 1906 2280 2913 3196 3248 3580 3368 2688 2450 2879 2387 1991 2209 2703 2836 2997 3078 3150 3954 3459 3666 3902 4021 4174 4508 4763 4896 4936 5116 5017 4978 5021 4938 4951 4815 4606 4512 4343 4185 3963 3936 4145 4276 3962 3792 3755 3732 3312 2978 3189 2909 2800 3173 3050 2981 2962 2969 2905 2758
1281 1360 1531 1702 1864 2159 2636 2934 3347 3309 3842 3540 1772 1970 2655 2269 2087 2264 2861 2945 3155 3196 3342 3810 4015 3914 4208 4329 4502 4688 4816 4782 4792 5006 5032 5086 5066 5044 4892 4776 4681 4599 4336 3984 3642 3933 4187 4325 3966 4024 3987 3862 3469 3036 3152 2678 2857 3090 3097 2998 2818 2733 2532
890 1237 1452 1651 1740 1897 2304 2741 3009 3336 3352 3268 2664 1244 2538 2392 1902 2208 2793 3027 3163 3489 3419 3608 3977 4035 4247 4307 4514 4637 4834 4737 4674 5056 4998 5096 5038 5003 4928 4884 4853 4662 4558 4176 3730 3673 3975 4283 3950 4107 4136 4035 3968 3498 3174 3077 2476 2698 2964 2962 2884 2662 2732
574 972 1258 1678 1874 2005 2222 2243 2920 3188 2862 2409 2200 1572 2419 2478 2210 2599 3223 3212 3470 3433 3304 3370 3677 4041 4364 4271 4508 4681 4814 4888 4904 5014 4975 5048 5069 5004 4891 4879 4840 4675 4695 4452 3901 3218 3450 3860 4029 3990 4051 3937 4098 3828 3736 3280 4430 2575 2633 2802 2749 2652 3084
574 638 1203 1629 1862 1926 2026 2507 2792 2852 3054 2413 1620 1443 2238 2986 2439 2312 3087 3352 3394 3460 3283 3366 3787 4225 4455 4364 4503 4712 4761 4833 4872 4990 4972 5066 5023 4837 4872 4926 4907 4675 4689 4318 3976 3464 3172 3307 3591 3758 3881 3932 3956 3993 3711 3523 4442 2883 2657 2515 2555 2538 3426
624 746 1194 1589 1817 2006 2219 2416 2674 2886 2692 2186 1805 1420 2321 2731 2587 2572 2955 3221 3444 3399 3384 3573 3982 4389 4539 4407 4459 4608 4738 4712 4987 5066 4917 5056 4926 4934 4968 4733 4619 4642 4516 4206 3991 3596 3199 2970 3096 3379 3461 3480 3629 3645 3772 3888 3528 3082 2999 2824 2611 2467 3388
813 717 1080 1413 1718 1879 2166 2431 2374 2967 2763 2228 2139 1575 1883 2690 2649 2808 3333 3486 3639 3589 3478 3746 4180 4411 4604 4518 4377 4527 4700 4646 4831 4849 4748 4891 4786 4628 4524 4511 4543 4430 4442 4321 3881 3776 3590 2988 2964 2667 3248 3200 3278 3246 3435 3616 4181 3393 3168 3104 2914 2646 2581
862 1035 885 1237 1671 2055 2253 2192 2453 2866 2602 2168 1942 2014 2417 2706 3297 3618 3746 3607 3649 3740 3544 3911 4196 4405 4717 4591 4346 4432 4518 4530 4854 4825 4690 4814 4851 4856 4656 4618 4397 4249 4298 4086 4083 3991 3920 3792 3497 3032 3065 3224 3215 3433 3178 3215 3593 3561 3492 3278 3131 2902 2646
1116 1133 1215 1228 1645 2114 2426 2326 2330 2664 2476 2063 1946 2324 2353 2440 3321 3351 3762 3690 4006 3824 3698 3935 4324 4492 4672 4711 4323 4671 4684 4524 4507 4551 4335 4528 4814 4822 4605 4624 4512 4337 4407 4376 4269 4212 4077 4250 4039 3672 3508 3400 3461 3510 4124 4723 4809 4498 3522 3297 3216 3114 2938
1231 1370 1489 1396 1420 2120 2471 2967 2868 2525 2283 1820 2038 2206 2404 2916 3506 3607 3774 4034 4111 3834 3849 4192 4388 4525 4689 4588 4524 4311 4249 4287 4538 4633 4288 4591 4857 4975 4801 4672 4560 4407 4449 4566 4308 4166 4208 4329 4300 4077 3749 3748 3802 4079 4356 4817 4665 3916 3440 3426 3294 3210 3077
1427 1508 1594 1549 1556 2042 2551 2692 2723 2765 2414 2290 2553 2763 3140 2907 3404 3486 4069 4142 4266 4146 3985 4284 4514 4675 4750 4474 4280 4465 4426 4422 4586 4510 4215 4551 4818 4919 4813 4737 4459 4434 4404 4467 4229 4137 4183 4442 4451 4404 4208 4089 4059 4169 4088 4063 4185 4598 3736 3564 3452 3361 3259
1492 1557 1624 1702 1693 1831 2376 2863 2820 2980 3382 2608 2759 3059 3694 3302 3203 3772 3984 4291 4269 3989 4061 4352 4610 4576 4767 4507 4244 4205 4180 4273 4372 4447 4209 4389 4668 4761 4791 4673 4369 4431 4507 4510 4310 4350 4277 4394 4045 3956 3986 4080 4160 4088 3999 4106 4192 4431 4135 3570 3570 3549 3530
1617 1738 1800 1858 1831 1942 2193 2703 2840 3153 3361 3322 2865 2671 2399 2976 3198 3953 4264 4325 4048 3775 4311 4530 4815 4759 4710 4556 4203 4327 4222 4292 4237 4390 4212 4408 4455 4586 4688 4733 4539 4346 4557 4384 4173 4223 4241 4000 3902 3886 3720 4234 4276 4338 4274 4234 4532 4537 4266 3912 3764 3675 3740
1755 1712 1711 1797 1748 1893 2138 2398 2604 3044 3310 3603 3883 3769 3200 3153 3682 3901 4133 4142 3808 3644 4584 4823 4918 4757 4827 4616 4260 4305 4234 4392 4362 4402 4336 4323 4359 4400 4406 4266 4415 4300 4477 4383 4019 4164 4207 3922 3811 4109 4081 4168 4148 4414 4472 4404 4564 4418 4951 4178 3983 3924 3872
1523 1641 1689 1736 1849 1719 1750 2072 2214 2442 2884 3321 3535 3952 4622 3876 3626 3939 4081 4060 3843 4580 4940 4974 5228 5078 5042 4715 4638 4530 4452 4526 4235 4464 4471 4508 4327 4426 7254 6225 4458 4501 4464 4542 4412 4445 4230 4231 4221 4152 3963 4298 4318 4332 4419 4623 4551 4608 4086 4826 4081 4041 3943
1554 1722 1678 1680 1822 1876 1790 1900 1983 2132 2455 2779 3075 3608 3746 4226 4219 4178 3887 4005 4094 4581 4739 5236 5196 5019 5080 5017 4804 4882 4505 4469 4383 4408 4658 4612 4295 3755 4299 4322 4156 4052 5368 4374 4240 4540 4265 4734 4542 4261 4890 4482 3953 4402 4376 4579 5799 4340 4230 4052 4084 4081 4136
1445 1507 1490 1390 1691 2007 1885 1866 1998 2057 2164 2326 2504 2946 3342 3614 3778 4248 4212 4201 4361 4548 4882 4985 4801 4695 4898 4816 4883 4981 4786 4770 4716 4492 4887 4962 4782 4395 4052 4271 4161 3958 4118 4176 4255 4148 4114 4069 4271 4153 3990 5972 4486 3954 3916 4004 4016 4008 4259 4168 4128 4146 4109
1278 1341 1408 1481 1524 1537 2043 1860 2029 1989 2056 2128 2275 2418 2654 2917 3139 3345 3587 4332 4873 4488 4827 4874 4754 4556 4658 4727 4802 5162 5134 4678 4708 4771 4824 4801 5234 5791 4715 4414 4151 3966 3976 4102 4310 4403 4256 4143 3965 3996 4051 4506 4498 4105 3806 3878 3929 3928 3897 4208 4197 4142 4151